Laatste waarneming: 07:39
Temperatuur:19,9°C
Dauwpunt:17,7°C
Rel. vocht:87,0%
Natte-bol:19,6°C
Wind (gem. 10 min.):6,5 m/s
Wind (max. 10 min.):1.7E+308 m/s
Windrichting:235°
Neerslagsom:0,0 mm
Neerslagintensiteit:0,0 mm/u
Luchtdruk:1009,0 hPa
Straling:19,0 W/m2
 
Maximumtemp.:19,9°C (07:29)
Minimumtemp.:19,6°C (05:19)
Hoogste windstoot:13,4 m/s (07:24)


Bekijk de verwachting.

Bekijk de grafieken.
Bekijk het weekoverzicht.
Bekijk het maandoverzicht.
Bekijk het jaaroverzicht.
Dagtabel
Tijd Temp. Dauwp. Natte-bol Rel. Hum. Windsnelh. Windricht. Windstoot Neerslag Straling Luchtdruk
 
07:39 19,9 17,7 19,6 87,0 6,5 235 - 0,0 19 1.009,0
07:38 19,9 17,8 19,6 87,3 7,1 185 12,5 0,0 19 1.009,0
07:37 19,9 17,8 19,7 87,6 7,7 203 11,6 0,0 18 1.009,1
07:36 19,9 17,7 19,6 87,0 6,9 219 13,4 0,0 18 1.009,1
07:35 19,9 17,7 19,6 87,0 6,7 181 - 0,0 16 1.009,1
07:34 19,9 17,7 19,6 87,0 6,9 215 - 0,0 14 1.009,1
07:33 19,9 17,7 19,6 87,0 6,6 203 10,7 0,0 13 1.009,1
07:32 19,9 17,8 19,6 87,5 5,9 231 - 0,0 11 1.009,1
07:31 19,9 17,8 19,7 87,6 5,9 215 - 0,0 11 1.009,1
07:30 19,9 17,7 19,6 87,0 6,4 198 10,7 0,0 9 1.009,1
07:29 19,9 17,7 19,6 87,0 7,0 172 10,3 0,0 9 1.009,2
07:28 19,9 17,7 19,6 87,0 7,1 217 10,3 0,0 7 1.009,3
07:27 19,9 17,7 19,6 87,2 7,6 205 11,2 0,0 6 1.009,3
07:26 19,9 17,9 19,7 88,0 7,8 224 - 0,0 5 1.009,4
07:25 19,9 17,8 19,7 88,0 8,4 190 13,4 0,0 5 1.009,3
07:24 19,9 17,8 19,7 88,0 8,6 236 12,1 0,0 5 1.009,4
07:23 19,9 17,8 19,6 88,0 8,1 203 12,5 0,0 5 1.009,5
07:22 19,8 17,8 19,6 88,0 7,5 239 - 0,0 5 1.009,4
07:21 19,8 17,8 19,6 88,0 7,1 218 13,4 0,0 5 1.009,4
07:20 19,8 17,8 19,6 88,0 7,1 213 13,4 0,0 5 1.009,4
07:19 19,8 17,7 19,6 88,0 7,2 209 10,7 0,0 1 1.009,4
07:18 19,8 17,8 19,6 88,0 7,0 205 - 0,0 5 1.009,5
07:17 19,8 17,8 19,6 88,0 6,4 198 - 0,0 5 1.009,5
07:16 19,8 17,7 19,6 88,0 5,9 211 - 0,0 5 1.009,5
07:15 19,8 17,7 19,6 88,0 5,9 203 9,4 0,0 2 1.009,5
07:14 19,8 17,7 19,6 88,0 6,1 202 9,4 0,0 0 1.009,5
07:13 19,8 17,7 19,6 88,0 5,9 191 - 0,0 0 1.009,4
07:12 19,8 17,7 19,6 88,0 5,6 234 - 0,0 0 1.009,4
07:11 19,8 17,7 19,6 88,0 5,7 189 9,8 0,0 0 1.009,4
07:10 19,8 17,7 19,6 88,0 5,9 228 9,4 0,0 0 1.009,4
07:09 19,8 17,7 19,5 88,0 5,8 219 - 0,0 0 1.009,4
07:08 19,8 17,7 19,6 88,0 5,7 172 - 0,0 0 1.009,5
07:07 19,8 17,7 19,6 88,0 5,7 197 - 0,0 0 1.009,5
07:06 19,8 17,7 19,6 88,0 6,1 206 9,4 0,0 0 1.009,5
07:05 19,8 17,7 19,6 88,0 6,1 195 9,4 0,0 0 1.009,5
07:04 19,8 17,7 19,6 88,0 4,9 214 - 0,0 0 1.009,5
07:03 19,8 17,7 19,6 88,0 4,3 258 - 0,0 0 1.009,5
07:02 19,8 17,7 19,6 88,0 4,6 183 - 0,0 0 1.009,6
07:01 19,8 17,7 19,6 88,0 5,4 208 - 0,0 0 1.009,5
07:00 19,8 17,7 19,6 88,0 5,7 170 - 0,0 0 1.009,5
 
06:59 19,8 17,9 19,7 88,8 5,7 215 10,3 0,0 0 1.009,5
06:58 19,8 17,9 19,7 89,0 5,9 224 9,4 0,0 0 1.009,6
06:57 19,8 17,9 19,7 89,0 6,0 213 - 0,0 0 1.009,7
06:56 19,8 17,9 19,7 89,0 6,4 224 - 0,0 0 1.009,7
06:55 19,8 17,9 19,7 89,0 6,0 207 9,8 0,0 0 1.009,7
06:54 19,8 17,9 19,7 89,0 5,9 161 10,3 0,0 0 1.009,7
06:53 19,8 17,9 19,7 89,0 6,0 231 10,3 0,0 0 1.009,8
06:52 19,8 17,9 19,7 89,0 6,9 192 - 0,0 0 1.009,8
06:51 19,8 17,9 19,7 89,0 6,8 217 11,2 0,0 0 1.009,8
06:50 19,8 17,9 19,7 89,0 6,0 205 - 0,0 0 1.009,8
06:49 19,8 17,9 19,7 89,0 5,1 205 - 0,0 0 1.009,8
06:48 19,8 17,9 19,7 89,0 5,3 204 - 0,0 0 1.009,9
06:47 19,8 17,9 19,7 89,0 6,1 190 - 0,0 0 1.009,9
06:46 19,8 17,9 19,7 89,0 6,6 217 10,7 0,0 0 1.009,9
06:45 19,8 17,9 19,7 89,0 6,7 229 - 0,0 0 1.009,9
06:44 19,8 18,0 19,8 89,0 5,9 201 - 0,0 0 1.009,9
06:43 19,8 18,0 19,8 89,0 5,6 197 - 0,0 0 1.009,9
06:42 19,8 17,9 19,8 89,0 5,2 197 - 0,0 0 1.009,8
06:41 19,8 17,9 19,8 89,0 5,1 240 - 0,0 0 1.009,9
06:40 19,8 17,9 19,7 89,0 5,3 196 - 0,0 0 1.009,9
06:39 19,8 17,9 19,7 89,0 6,6 174 10,7 0,0 0 1.009,9
06:38 19,8 18,0 19,8 89,0 7,2 199 10,7 0,0 0 1.010,0
06:37 19,8 18,0 19,8 89,0 7,0 199 - 0,0 0 1.010,0
06:36 19,8 18,0 19,8 89,0 6,0 195 - 0,0 0 1.010,0
06:35 19,8 18,0 19,8 89,0 5,2 232 - 0,0 0 1.010,1
06:34 19,8 18,0 19,8 89,0 5,3 234 - 0,0 0 1.010,1
06:33 19,8 18,0 19,8 89,0 5,9 210 - 0,0 0 1.010,1
06:32 19,8 18,0 19,8 89,0 6,1 203 - 0,0 0 1.010,1
06:31 19,8 18,0 19,8 89,0 5,5 202 - 0,0 0 1.010,1
06:30 19,8 18,0 19,8 89,0 4,9 234 - 0,0 0 1.010,1
06:29 19,8 18,0 19,8 89,0 4,7 199 - 0,0 0 1.010,1
06:28 19,8 18,0 19,8 89,0 4,9 234 - 0,0 0 1.010,1
06:27 19,8 18,0 19,8 89,0 4,7 213 - 0,0 0 1.010,1
06:26 19,8 18,0 19,8 89,0 4,5 267 - 0,0 0 1.010,1
06:25 19,8 18,0 19,8 89,0 4,6 202 - 0,0 0 1.010,1
06:24 19,8 18,0 19,8 89,0 5,2 192 9,4 0,0 0 1.010,1
06:23 19,8 18,0 19,8 89,0 4,5 183 - 0,0 0 1.010,2
06:22 19,8 18,0 19,8 89,0 4,4 230 - 0,0 0 1.010,2
06:21 19,8 18,0 19,8 89,0 4,0 205 - 0,0 0 1.010,1
06:20 19,8 18,0 19,8 89,0 4,1 143 - 0,0 0 1.010,1
06:19 19,8 18,0 19,8 89,0 4,1 212 - 0,0 0 1.010,1
06:18 19,8 18,0 19,8 89,0 4,8 216 - 0,0 0 1.010,1
06:17 19,8 18,0 19,8 89,0 4,6 219 - 0,0 0 1.010,1
06:16 19,8 18,0 19,8 89,0 4,4 186 - 0,0 0 1.010,2
06:15 19,8 18,0 19,8 89,0 4,4 228 - 0,0 0 1.010,1
06:14 19,8 18,0 19,8 89,0 4,1 189 - 0,0 0 1.010,1
06:13 19,8 17,9 19,8 89,0 3,7 151 - 0,0 0 1.010,2
06:12 19,8 18,0 19,8 89,0 3,8 245 - 0,0 0 1.010,3
06:11 19,8 17,9 19,8 89,0 5,1 232 - 0,0 0 1.010,3
06:10 19,8 18,0 19,8 89,0 5,2 217 - 0,0 0 1.010,3
06:09 19,8 18,0 19,8 89,0 4,6 203 - 0,0 0 1.010,4
06:08 19,8 18,0 19,8 89,0 4,3 244 - 0,0 0 1.010,4
06:07 19,8 17,9 19,8 89,0 4,6 193 - 0,0 0 1.010,4
06:06 19,8 17,9 19,8 89,0 4,9 198 - 0,0 0 1.010,4
06:05 19,8 18,0 19,8 89,0 4,9 224 - 0,0 0 1.010,4
06:04 19,8 18,0 19,8 89,5 5,3 207 - 0,0 0 1.010,5
06:03 19,8 18,1 19,2 90,0 6,0 201 - 0,0 0 1.010,5
06:02 19,8 18,1 19,3 90,0 5,9 209 - 0,0 0 1.010,5
06:01 19,8 18,1 19,2 90,0 5,2 195 - 0,0 0 1.010,5
06:00 19,8 18,1 19,2 90,0 4,7 232 - 0,0 0 1.010,5
 
05:59 19,8 18,1 19,2 90,0 4,5 199 - 0,0 0 1.010,6
05:58 19,8 18,1 19,2 90,0 4,9 255 - 0,0 0 1.010,6
05:57 19,8 18,1 19,2 90,0 5,3 229 - 0,0 0 1.010,6
05:56 19,8 18,1 19,2 90,0 5,3 201 - 0,0 0 1.010,6
05:55 19,8 18,1 19,2 90,0 4,4 228 - 0,0 0 1.010,7
05:54 19,8 18,1 19,2 90,0 4,5 151 - 0,0 0 1.010,7
05:53 19,8 18,1 19,2 90,0 4,9 184 - 0,0 0 1.010,6
05:52 19,8 18,1 19,2 90,0 5,1 210 - 0,0 0 1.010,5
05:51 19,8 18,1 19,2 90,0 5,6 248 10,7 0,0 0 1.010,5
05:50 19,8 18,1 19,2 90,0 5,1 204 - 0,0 0 1.010,5
05:49 19,8 18,1 19,2 90,0 5,3 174 - 0,0 0 1.010,5
05:48 19,7 18,0 19,2 90,0 5,2 228 10,3 0,0 0 1.010,6
05:47 19,7 18,0 19,2 90,0 5,4 217 - 0,0 0 1.010,5
05:46 19,7 18,0 19,2 90,0 5,4 235 - 0,0 0 1.010,6
05:45 19,7 18,0 19,2 90,0 5,8 215 - 0,0 0 1.010,6
05:44 19,7 18,0 19,2 90,0 6,4 199 - 0,0 0 1.010,6
05:43 19,7 18,0 19,2 90,0 6,7 218 9,8 0,0 0 1.010,6
05:42 19,7 18,0 19,1 90,0 6,7 204 - 0,0 0 1.010,6
05:41 19,7 18,0 19,1 90,0 6,1 195 - 0,0 0 1.010,7
05:40 19,7 18,0 19,1 90,0 5,7 217 - 0,0 0 1.010,7
05:39 19,7 18,1 19,1 90,6 5,8 231 - 0,0 0 1.010,8
05:38 19,7 18,1 19,2 91,0 6,0 212 - 0,0 0 1.010,8
05:37 19,7 18,1 19,2 91,0 5,8 191 - 0,0 0 1.010,7
05:36 19,7 18,1 19,2 91,0 5,6 242 - 0,0 0 1.010,7
05:35 19,6 18,1 19,1 91,0 5,5 209 - 0,0 0 1.010,7
05:34 19,6 18,1 19,1 91,0 5,3 208 - 0,0 0 1.010,8
05:33 19,7 18,1 19,1 91,0 4,9 195 - 0,0 0 1.010,8
05:32 19,6 18,1 19,1 91,0 4,7 238 - 0,0 0 1.010,7
05:31 19,6 18,1 19,1 91,0 4,6 186 - 0,0 0 1.010,8
05:30 19,6 18,1 19,1 91,0 4,8 224 - 0,0 0 1.010,8
05:29 19,6 18,1 19,1 91,0 5,4 214 - 0,0 0 1.010,8
05:28 19,6 18,1 19,1 91,0 5,9 210 - 0,0 0 1.010,8
05:27 19,6 18,1 19,1 91,0 6,2 191 - 0,0 0 1.010,7
05:26 19,6 18,1 19,1 91,0 6,2 197 - 0,0 0 1.010,7
05:25 19,6 18,1 19,1 91,0 5,5 211 - 0,0 0 1.010,7
05:24 19,6 18,1 19,1 91,0 4,9 231 - 0,0 0 1.010,8
05:23 19,6 18,1 19,1 91,0 4,4 226 - 0,0 0 1.010,8
05:22 19,6 18,1 19,1 91,0 4,0 198 - 0,0 0 1.010,8
05:21 19,6 18,1 19,1 91,0 3,7 233 - 0,0 0 1.010,7
05:20 19,6 18,1 19,1 91,0 3,9 211 - 0,0 0 1.010,8
05:19 19,6 18,1 19,1 91,0 4,2 206 - 0,0 0 1.010,8
05:18 19,6 18,1 19,1 91,0 4,5 213 - 0,0 0 1.010,8
05:17 19,6 18,1 19,1 91,0 4,6 218 - 0,0 0 1.010,9
05:16 19,6 18,1 19,1 91,0 4,8 193 - 0,0 0 1.010,9
05:15 19,6 18,1 19,1 91,0 4,7 193 - 0,0 0 1.010,9
05:14 19,6 18,1 19,1 91,0 4,2 206 - 0,0 0 1.010,9
05:13 19,6 18,1 19,1 91,0 4,0 178 - 0,0 0 1.010,8
05:12 19,6 18,1 19,1 91,0 3,8 186 - 0,0 0 1.010,8
05:11 19,6 18,1 19,1 91,0 3,7 219 - 0,0 0 1.010,8
05:10 19,6 18,1 19,1 91,0 3,2 185 - 0,0 0 1.010,9
05:09 19,6 18,1 19,1 91,0 3,1 266 - 0,0 0 1.010,9
05:08 19,6 18,1 19,1 91,0 3,6 178 - 0,0 0 1.011,0
05:07 19,6 18,1 19,1 91,0 4,4 244 - 0,0 0 1.011,0
05:06 19,6 18,1 19,1 91,0 4,8 214 - 0,0 0 1.010,9
05:05 19,6 18,1 19,1 91,0 4,5 211 - 0,0 0 1.011,0
05:04 19,6 18,1 19,1 91,0 4,1 190 - 0,0 0 1.011,0
05:03 19,6 18,1 19,1 91,0 4,0 176 - 0,0 0 1.011,1
05:02 19,6 18,1 19,1 91,0 3,8 215 - 0,0 0 1.011,1
05:01 19,6 18,1 19,1 91,0 3,9 205 - 0,0 0 1.011,1
05:00 19,6 18,1 19,1 91,0 3,8 228 - 0,0 0 1.011,1
 
04:59 19,7 18,1 19,2 91,0 3,7 184 - 0,0 0 1.011,1
04:58 19,7 18,1 19,1 91,0 3,9 209 - 0,0 0 1.011,1
04:57 19,7 18,1 19,2 91,0 4,3 208 - 0,0 0 1.011,1
04:56 19,7 18,1 19,2 91,0 4,3 190 - 0,0 0 1.011,1
04:55 19,6 18,1 19,1 91,0 3,8 189 - 0,0 0 1.011,2
04:54 19,7 18,1 19,2 91,0 3,7 198 - 0,0 0 1.011,1
04:53 19,7 18,1 19,1 91,0 3,6 185 - 0,0 0 1.011,2
04:52 19,7 18,1 19,2 91,0 3,6 166 - 0,0 0 1.011,2
04:51 19,7 18,1 19,2 91,0 3,7 209 - 0,0 0 1.011,1
04:50 19,7 18,1 19,2 91,0 4,3 215 - 0,0 0 1.011,1
04:49 19,7 18,1 19,2 91,0 4,0 224 - 0,0 0 1.011,1
04:48 19,7 18,2 19,2 91,0 3,5 174 - 0,0 0 1.011,1
04:47 19,7 18,2 19,2 91,0 3,4 234 - 0,0 0 1.011,1
04:46 19,7 18,2 19,2 91,0 3,7 194 - 0,0 0 1.011,1
04:45 19,7 18,2 19,2 91,0 3,9 207 - 0,0 0 1.011,2
04:44 19,7 18,2 19,2 91,0 3,9 167 - 0,0 0 1.011,1
04:43 19,7 18,2 19,2 91,0 3,8 185 - 0,0 0 1.011,2
04:42 19,7 18,2 19,2 91,0 3,7 203 - 0,0 0 1.011,2
04:41 19,7 18,2 19,2 91,0 3,3 176 - 0,0 0 1.011,2
04:40 19,7 18,2 19,2 91,0 2,9 193 - 0,0 0 1.011,3
04:39 19,7 18,2 19,2 91,0 3,0 164 - 0,0 0 1.011,2
04:38 19,7 18,2 19,2 91,0 3,4 134 - 0,0 0 1.011,2
04:37 19,7 18,2 19,2 91,0 3,6 203 - 0,0 0 1.011,3
04:36 19,7 18,2 19,2 91,0 4,1 195 - 0,0 0 1.011,4
04:35 19,7 18,2 19,2 91,0 4,3 207 - 0,0 0 1.011,3
04:34 19,7 18,2 19,2 91,0 4,1 192 - 0,0 0 1.011,3
04:33 19,7 18,2 19,2 91,0 3,8 223 - 0,0 0 1.011,3
04:32 19,8 18,2 19,2 91,0 3,6 192 - 0,0 0 1.011,3
04:31 19,8 18,2 19,3 91,0 3,5 198 - 0,0 0 1.011,4
04:30 19,8 18,2 19,2 91,0 3,5 187 - 0,0 0 1.011,4
04:29 19,8 18,3 19,3 91,0 3,9 215 - 0,0 0 1.011,4
04:28 19,8 18,3 19,3 91,0 4,0 196 - 0,0 0 1.011,4
04:27 19,8 18,1 19,2 90,2 3,6 197 - 0,0 0 1.011,4
04:26 19,8 18,1 19,2 90,0 3,0 206 - 0,0 0 1.011,4
04:25 19,8 18,1 19,2 90,3 2,9 161 - 0,0 0 1.011,4
04:24 19,8 18,3 19,3 91,0 3,0 193 - 0,0 0 1.011,5
04:23 19,8 18,3 19,3 91,0 3,7 235 - 0,0 0 1.011,5
04:22 19,8 18,3 19,3 91,0 3,4 224 - 0,0 0 1.011,4
04:21 19,8 18,3 19,3 91,0 3,0 189 - 0,0 0 1.011,5
04:20 19,8 18,3 19,3 90,9 3,4 213 - 0,0 0 1.011,5
04:19 19,8 18,1 19,3 90,0 3,7 220 - 0,0 0 1.011,5
04:18 19,8 18,1 19,3 90,0 3,5 230 - 0,0 0 1.011,5
04:17 19,8 18,1 19,3 90,0 3,2 180 - 0,0 0 1.011,5
04:16 19,8 18,1 19,3 90,0 3,1 207 - 0,0 0 1.011,6
04:15 19,8 18,1 19,3 90,0 3,0 207 - 0,0 0 1.011,5
04:14 19,8 18,1 19,3 90,0 3,4 184 - 0,0 0 1.011,5
04:13 19,8 18,1 19,3 90,0 3,6 182 - 0,0 0 1.011,5
04:12 19,8 18,1 19,3 90,0 3,7 182 - 0,0 0 1.011,5
04:11 19,8 18,1 19,3 90,0 3,5 200 - 0,0 0 1.011,6
04:10 19,8 18,1 19,3 90,0 3,5 191 - 0,0 0 1.011,6
04:09 19,9 18,2 19,3 90,0 3,7 196 - 0,0 0 1.011,7
04:08 19,9 18,2 19,3 90,0 4,2 195 - 0,0 0 1.011,7
04:07 19,9 18,2 19,3 90,0 4,5 203 - 0,0 0 1.011,7
04:06 19,9 18,2 19,3 90,0 4,3 222 - 0,0 0 1.011,7
04:05 19,9 18,2 19,3 90,0 3,8 192 - 0,0 0 1.011,8
04:04 19,9 18,2 19,3 90,0 3,7 182 - 0,0 0 1.011,8
04:03 19,9 18,2 19,3 90,0 3,5 207 - 0,0 0 1.011,8
04:02 19,9 18,2 19,3 90,0 3,3 235 - 0,0 0 1.011,8
04:01 19,9 18,2 19,3 90,0 3,3 195 - 0,0 0 1.011,8
04:00 19,9 18,2 19,3 90,0 3,5 196 - 0,0 0 1.011,8
 
03:59 19,9 18,2 19,3 90,0 3,3 170 - 0,0 0 1.011,8
03:58 19,9 18,2 19,3 90,0 2,0 167 - 0,0 0 1.011,9
03:57 19,9 18,2 19,3 90,0 2,2 55 - 0,0 0 1.011,9
03:56 19,9 18,2 19,3 90,0 2,7 161 - 0,0 0 1.011,9
03:55 19,9 18,2 19,3 90,0 3,5 165 - 0,0 0 1.011,9
03:54 19,9 18,2 19,3 90,0 3,6 209 - 0,0 0 1.011,9
03:53 19,9 18,2 19,3 90,0 4,0 185 - 0,0 0 1.011,9
03:52 19,9 18,2 19,3 90,0 4,3 178 - 0,0 0 1.011,9
03:51 19,9 18,2 19,3 90,0 4,4 203 - 0,0 0 1.012,0
03:50 19,9 18,2 19,3 90,0 4,4 196 - 0,0 0 1.012,0
03:49 19,9 18,2 19,3 90,0 4,1 209 - 0,0 0 1.012,0
03:48 19,9 18,2 19,3 90,0 4,3 217 - 0,0 0 1.012,0
03:47 19,9 18,2 19,3 90,0 4,1 185 - 0,0 0 1.012,0
03:46 19,9 18,2 19,3 90,0 4,1 226 - 0,0 0 1.012,0
03:45 19,9 18,2 19,3 90,0 4,5 214 - 0,0 0 1.012,0
03:44 19,9 18,2 19,3 90,0 4,5 199 - 0,0 0 1.012,0
03:43 19,9 18,2 19,3 90,0 4,4 255 - 0,0 0 1.012,0
03:42 19,9 18,2 19,3 90,0 4,4 184 - 0,0 0 1.012,0
03:41 19,9 18,2 19,3 90,0 4,9 211 - 0,0 0 1.012,0
03:40 19,9 18,2 19,3 90,0 4,7 170 - 0,0 0 1.012,0
03:39 19,9 18,2 19,3 90,0 5,0 210 - 0,0 0 1.012,0
03:38 19,9 18,2 19,3 90,0 5,2 202 - 0,0 0 1.012,0
03:37 19,9 18,2 19,3 90,0 5,3 180 - 0,0 0 1.012,0
03:36 19,9 18,2 19,3 90,0 5,0 203 - 0,0 0 1.012,1
03:35 19,9 18,2 19,3 90,0 4,7 201 - 0,0 0 1.012,1
03:34 19,9 18,2 19,3 90,0 4,6 181 - 0,0 0 1.012,1
03:33 19,9 18,2 19,3 90,0 5,0 228 - 0,0 0 1.012,1
03:32 19,9 18,2 19,3 90,0 5,3 210 - 0,0 0 1.012,1
03:31 19,9 18,2 19,3 90,0 5,3 198 - 0,0 0 1.012,1
03:30 19,9 18,2 19,3 90,0 4,9 203 - 0,0 0 1.012,1
03:29 19,9 18,2 19,3 90,0 4,3 234 - 0,0 0 1.012,1
03:28 19,9 18,2 19,3 90,0 4,0 186 - 0,0 0 1.012,1
03:27 19,9 18,2 19,3 90,0 4,4 188 - 0,0 0 1.012,0
03:26 19,9 18,2 19,3 90,0 4,6 230 - 0,0 0 1.012,1
03:25 19,9 18,2 19,3 90,0 4,7 223 - 0,0 0 1.012,1
03:24 19,8 18,1 19,3 90,0 4,6 230 - 0,0 0 1.012,1
03:23 19,9 18,2 19,3 90,0 5,2 199 - 0,0 0 1.012,2
03:22 19,9 18,2 19,3 90,0 5,7 210 - 0,0 0 1.012,2
03:21 19,8 18,1 19,3 90,0 5,4 209 - 0,0 0 1.012,2
03:20 19,9 18,2 19,3 90,0 4,9 208 - 0,0 0 1.012,2
03:19 19,9 18,2 19,3 90,0 4,6 236 - 0,0 0 1.012,2
03:18 19,8 18,1 19,3 90,0 5,0 183 - 0,0 0 1.012,2
03:17 19,9 18,2 19,3 90,0 5,5 193 - 0,0 0 1.012,3
03:16 19,8 18,1 19,3 90,0 5,1 192 - 0,0 0 1.012,3
03:15 19,8 18,1 19,3 90,0 5,0 230 - 0,0 0 1.012,3
03:14 19,8 18,1 19,3 90,0 4,8 203 - 0,0 0 1.012,3
03:13 19,8 18,1 19,3 90,0 4,9 174 - 0,0 0 1.012,3
03:12 19,8 18,1 19,3 90,0 5,0 197 - 0,0 0 1.012,4
03:11 19,8 18,1 19,3 90,0 5,1 195 - 0,0 0 1.012,3
03:10 19,8 18,1 19,3 90,0 5,3 203 - 0,0 0 1.012,4
03:09 19,8 18,1 19,3 90,0 5,6 226 - 0,0 0 1.012,4
03:08 19,8 18,1 19,3 90,0 5,8 206 - 0,0 0 1.012,4
03:07 19,8 18,1 19,3 90,0 6,4 202 - 0,0 0 1.012,4
03:06 19,8 18,1 19,3 90,0 6,8 203 9,8 0,0 0 1.012,4
03:05 19,8 18,1 19,3 90,0 6,4 203 9,8 0,0 0 1.012,4
03:04 19,8 18,1 19,3 90,0 5,3 212 - 0,0 0 1.012,5
03:03 19,8 18,1 19,3 90,0 5,2 230 - 0,0 0 1.012,5
03:02 19,8 18,1 19,3 90,0 5,6 213 - 0,0 0 1.012,5
03:01 19,8 18,1 19,3 90,0 5,9 189 - 0,0 0 1.012,6
03:00 19,8 18,1 19,2 90,0 5,5 228 - 0,0 0 1.012,6
 
02:59 19,8 18,1 19,3 90,0 5,0 193 - 0,0 0 1.012,6
02:58 19,8 18,1 19,3 90,0 4,7 208 - 0,0 0 1.012,6
02:57 19,8 18,1 19,3 90,0 4,5 208 - 0,0 0 1.012,7
02:56 19,8 18,1 19,3 90,0 5,0 199 - 0,0 0 1.012,7
02:55 19,8 18,1 19,3 90,0 5,4 200 9,4 0,0 0 1.012,7
02:54 19,8 18,1 19,3 90,0 5,5 238 - 0,0 0 1.012,7
02:53 19,8 18,1 19,3 90,0 5,2 211 - 0,0 0 1.012,7
02:52 19,8 18,1 19,3 90,0 5,1 191 - 0,0 0 1.012,7
02:51 19,8 18,1 19,3 90,0 4,9 191 - 0,0 0 1.012,7
02:50 19,8 18,1 19,3 90,0 5,2 209 - 0,0 0 1.012,7
02:49 19,8 18,1 19,3 90,0 5,7 195 - 0,0 0 1.012,7
02:48 19,8 18,1 19,3 90,0 5,8 198 - 0,0 0 1.012,7
02:47 19,8 18,1 19,3 90,0 5,7 221 - 0,0 0 1.012,7
02:46 19,8 18,1 19,3 90,0 5,6 209 - 0,0 0 1.012,7
02:45 19,8 18,1 19,3 90,0 5,6 202 - 0,0 0 1.012,7
02:44 19,8 18,1 19,3 90,0 5,3 203 - 0,0 0 1.012,8
02:43 19,8 18,1 19,3 90,0 5,3 230 - 0,0 0 1.012,8
02:42 19,8 18,1 19,3 90,0 5,4 229 - 0,0 0 1.012,8
02:41 19,8 18,1 19,3 90,0 5,5 197 - 0,0 0 1.012,8
02:40 19,8 18,1 19,3 90,0 5,4 192 - 0,0 0 1.012,8
02:39 19,8 18,1 19,3 90,0 5,0 206 - 0,0 0 1.012,8
02:38 19,9 18,2 19,3 90,0 4,7 212 - 0,0 0 1.012,7
02:37 19,9 18,2 19,3 90,0 4,9 228 - 0,0 0 1.012,7
02:36 19,9 18,2 19,3 90,0 5,2 210 - 0,0 0 1.012,8
02:35 19,9 18,2 19,3 90,0 4,9 211 - 0,0 0 1.012,8
02:34 19,9 18,2 19,3 90,0 4,4 168 - 0,0 0 1.012,8
02:33 19,9 18,2 19,3 90,0 3,9 211 - 0,0 0 1.012,8
02:32 19,9 18,2 19,3 90,0 4,7 232 - 0,0 0 1.012,8
02:31 19,9 18,2 19,3 90,0 5,3 225 - 0,0 0 1.012,8
02:30 19,9 18,2 19,3 90,0 5,2 200 - 0,0 0 1.012,8
02:29 19,9 18,2 19,3 90,0 4,6 222 - 0,0 0 1.012,9
02:28 19,9 18,2 19,3 90,0 4,8 190 - 0,0 0 1.012,9
02:27 19,9 18,2 19,3 90,0 5,1 212 - 0,0 0 1.012,9
02:26 19,9 18,2 19,3 90,0 5,0 178 - 0,0 0 1.012,9
02:25 19,9 18,2 19,3 90,0 4,9 170 - 0,0 0 1.012,9
02:24 19,8 18,1 19,3 90,0 4,4 203 - 0,0 0 1.012,9
02:23 19,9 18,2 19,3 90,0 4,5 206 - 0,0 0 1.012,8
02:22 19,8 18,1 19,3 90,0 4,7 208 - 0,0 0 1.012,8
02:21 19,8 18,1 19,3 90,0 5,0 190 - 0,0 0 1.012,8
02:20 19,8 18,1 19,3 90,0 4,9 200 - 0,0 0 1.012,8
02:19 19,9 18,2 19,3 90,0 4,8 208 - 0,0 0 1.012,8
02:18 19,8 18,1 19,3 90,0 4,5 213 - 0,0 0 1.012,8
02:17 19,8 18,1 19,3 90,0 4,5 196 - 0,0 0 1.012,8
02:16 19,8 18,1 19,3 90,0 4,6 186 - 0,0 0 1.012,8
02:15 19,8 18,1 19,3 90,0 4,4 169 - 0,0 0 1.012,9
02:14 19,8 18,1 19,3 90,0 4,1 213 - 0,0 0 1.012,9
02:13 19,8 18,1 19,3 90,0 4,6 238 - 0,0 0 1.012,9
02:12 19,8 18,1 19,3 90,0 4,8 207 - 0,0 0 1.012,9
02:11 19,8 18,1 19,3 90,0 4,9 200 - 0,0 0 1.013,0
02:10 19,8 18,1 19,3 90,0 4,8 201 - 0,0 0 1.013,0
02:09 19,8 18,1 19,3 90,0 4,6 220 - 0,0 0 1.013,0
02:08 19,8 18,1 19,3 90,0 4,2 193 - 0,0 0 1.013,0
02:07 19,8 18,3 19,3 90,8 4,2 190 - 0,0 0 1.013,0
02:06 19,8 18,3 19,3 91,0 4,5 207 - 0,0 0 1.013,0
02:05 19,8 18,3 19,3 91,0 4,6 183 - 0,0 0 1.013,0
02:04 19,8 18,3 19,3 91,0 4,6 201 - 0,0 0 1.013,0
02:03 19,8 18,3 19,3 91,0 4,8 200 - 0,0 0 1.012,9
02:02 19,8 18,3 19,3 91,0 5,0 201 - 0,0 0 1.012,9
02:01 19,8 18,3 19,3 91,0 5,1 215 - 0,0 0 1.012,9
02:00 19,8 18,3 19,3 91,0 4,7 208 - 0,0 0 1.012,9
 
01:59 19,8 18,3 19,3 91,0 4,1 241 - 0,0 0 1.012,9
01:58 19,8 18,3 19,3 91,0 4,0 184 - 0,0 0 1.012,9
01:57 19,8 18,3 19,3 91,0 4,1 201 - 0,0 0 1.012,9
01:56 19,8 18,3 19,3 91,0 3,9 204 - 0,0 0 1.012,9
01:55 19,8 18,3 19,3 91,0 4,1 192 - 0,0 0 1.012,9
01:54 19,8 18,3 19,3 91,0 4,3 173 - 0,0 0 1.012,9
01:53 19,8 18,3 19,3 91,0 3,9 184 - 0,0 0 1.013,0
01:52 19,8 18,3 19,3 91,0 3,8 230 - 0,0 0 1.013,0
01:51 19,8 18,3 19,3 91,0 4,2 190 - 0,0 0 1.013,0
01:50 19,8 18,3 19,3 91,0 4,6 214 - 0,0 0 1.013,0
01:49 19,8 18,3 19,3 91,0 4,6 215 - 0,0 0 1.013,0
01:48 19,8 18,3 19,3 91,0 4,5 219 - 0,0 0 1.013,0
01:47 19,8 18,3 19,3 91,0 4,1 198 - 0,0 0 1.013,1
01:46 19,8 18,3 19,3 91,0 3,8 210 - 0,0 0 1.013,1
01:45 19,8 18,3 19,3 91,0 3,7 189 - 0,0 0 1.013,1
01:44 19,8 18,3 19,3 91,0 3,8 192 - 0,0 0 1.013,0
01:43 19,8 18,3 19,3 91,0 3,5 181 - 0,0 0 1.013,1
01:42 19,8 18,3 19,3 91,0 3,6 204 - 0,0 0 1.013,1
01:41 19,8 18,3 19,3 91,0 4,0 207 - 0,0 0 1.013,1
01:40 19,8 18,3 19,3 91,0 3,9 192 - 0,0 0 1.013,1
01:39 19,8 18,3 19,3 91,0 3,7 195 - 0,0 0 1.013,1
01:38 19,8 18,3 19,3 91,0 3,9 211 - 0,0 0 1.013,2
01:37 19,8 18,3 19,3 91,0 4,1 190 - 0,0 0 1.013,3
01:36 19,8 18,3 19,3 91,0 4,3 203 - 0,0 0 1.013,3
01:35 19,8 18,3 19,3 91,0 4,3 213 - 0,0 0 1.013,3
01:34 19,8 18,3 19,3 91,0 4,8 211 - 0,0 0 1.013,4
01:33 19,8 18,3 19,3 91,0 5,0 200 - 0,0 0 1.013,3
01:32 19,8 18,3 19,3 91,0 4,9 185 - 0,0 0 1.013,3
01:31 19,8 18,2 19,3 91,0 4,6 201 - 0,0 0 1.013,3
01:30 19,8 18,2 19,3 91,0 4,5 199 - 0,0 0 1.013,3
01:29 19,7 18,2 19,2 91,0 4,0 197 - 0,0 0 1.013,3
01:28 19,8 18,2 19,2 91,0 3,8 247 - 0,0 0 1.013,2
01:27 19,7 18,2 19,2 91,0 4,3 199 - 0,0 0 1.013,2
01:26 19,7 18,2 19,2 91,0 4,8 189 - 0,0 0 1.013,3
01:25 19,7 18,2 19,2 91,0 4,4 213 - 0,0 0 1.013,3
01:24 19,7 18,2 19,2 91,0 3,8 207 - 0,0 0 1.013,3
01:23 19,7 18,2 19,2 91,0 4,0 224 - 0,0 0 1.013,3
01:22 19,7 18,2 19,2 91,0 4,6 209 - 0,0 0 1.013,3
01:21 19,7 18,2 19,2 91,0 4,7 217 - 0,0 0 1.013,4
01:20 19,7 18,2 19,2 91,0 3,9 188 - 0,0 0 1.013,4
01:19 19,7 18,2 19,2 91,0 3,5 230 - 0,0 0 1.013,4
01:18 19,7 18,2 19,2 91,0 3,7 207 - 0,0 0 1.013,4
01:17 19,7 18,2 19,2 91,0 4,5 195 - 0,0 0 1.013,5
01:16 19,7 18,2 19,2 91,0 4,4 206 - 0,0 0 1.013,5
01:15 19,7 18,2 19,2 91,0 3,6 201 - 0,0 0 1.013,5
01:14 19,7 18,2 19,2 91,0 3,5 153 - 0,0 0 1.013,5
01:13 19,7 18,2 19,2 91,0 4,4 150 - 0,0 0 1.013,5
01:12 19,7 18,2 19,2 91,0 4,0 143 - 0,0 0 1.013,5
01:11 19,7 18,2 19,2 91,0 3,7 218 - 0,0 0 1.013,6
01:10 19,7 18,2 19,2 91,0 4,2 223 - 0,0 0 1.013,6
01:09 19,7 18,2 19,2 91,0 4,3 168 - 0,0 0 1.013,6
01:08 19,7 18,2 19,2 91,0 4,3 201 - 0,0 0 1.013,6
01:07 19,7 18,2 19,2 91,0 3,8 182 - 0,0 0 1.013,7
01:06 19,7 18,2 19,2 91,0 3,7 195 - 0,0 0 1.013,7
01:05 19,7 18,1 19,2 91,0 4,4 213 - 0,0 0 1.013,7
01:04 19,7 18,2 19,2 91,0 5,0 196 - 0,0 0 1.013,7
01:03 19,7 18,2 19,2 91,0 4,6 201 - 0,0 0 1.013,7
01:02 19,7 18,1 19,2 91,0 3,5 201 - 0,0 0 1.013,7
01:01 19,7 18,1 19,2 91,0 2,9 186 - 0,0 0 1.013,7
01:00 19,7 18,2 19,2 91,0 2,9 211 - 0,0 0 1.013,7
 
00:59 19,7 18,1 19,2 91,0 3,2 208 - 0,0 0 1.013,7
00:58 19,7 18,2 19,2 91,0 3,5 216 - 0,0 0 1.013,7
00:57 19,7 18,1 19,2 91,0 3,6 225 - 0,0 0 1.013,8
00:56 19,7 18,2 19,2 91,0 3,4 208 - 0,0 0 1.013,7
00:55 19,7 18,2 19,2 91,0 3,6 197 - 0,0 0 1.013,8
00:54 19,7 18,2 19,2 91,0 3,6 218 - 0,0 0 1.013,8
00:53 19,7 18,2 19,2 91,0 3,6 172 - 0,0 0 1.013,9
00:52 19,7 18,2 19,2 91,0 4,0 186 - 0,0 0 1.013,9
00:51 19,7 18,2 19,2 91,0 4,6 202 - 0,0 0 1.013,9
00:50 19,7 18,2 19,2 91,0 4,5 195 - 0,0 0 1.013,9
00:49 19,7 18,2 19,2 91,0 4,2 219 - 0,0 0 1.013,9
00:48 19,7 18,2 19,2 91,0 4,1 192 - 0,0 0 1.013,9
00:47 19,7 18,2 19,2 91,0 4,5 219 - 0,0 0 1.013,9
00:46 19,7 18,2 19,2 91,0 4,5 195 - 0,0 0 1.013,9
00:45 19,7 18,2 19,2 91,0 4,2 214 - 0,0 0 1.013,9
00:44 19,7 18,2 19,2 91,0 4,1 204 - 0,0 0 1.013,9
00:43 19,7 18,2 19,2 91,0 4,3 213 - 0,0 0 1.014,0
00:42 19,7 18,2 19,2 91,0 4,0 197 - 0,0 0 1.013,9
00:41 19,7 18,2 19,2 91,0 3,5 190 - 0,0 0 1.013,9
00:40 19,7 18,2 19,2 91,0 3,3 203 - 0,0 0 1.013,9
00:39 19,7 18,2 19,2 91,0 3,3 213 - 0,0 0 1.014,0
00:38 19,7 18,2 19,2 91,0 3,4 202 - 0,0 0 1.014,0
00:37 19,7 18,2 19,2 91,0 3,5 184 - 0,0 0 1.014,0
00:36 19,7 18,2 19,2 91,0 3,7 203 - 0,0 0 1.014,0
00:35 19,7 18,2 19,2 91,0 3,8 194 - 0,0 0 1.014,0
00:34 19,7 18,2 19,2 91,0 3,9 211 - 0,0 0 1.014,1
00:33 19,7 18,2 19,2 91,0 4,0 209 - 0,0 0 1.014,0
00:32 19,7 18,2 19,2 91,0 4,2 207 - 0,0 0 1.014,0
00:31 19,7 18,2 19,2 91,0 4,2 192 - 0,0 0 1.014,0
00:30 19,7 18,2 19,2 91,0 4,0 206 - 0,0 0 1.014,0
00:29 19,7 18,2 19,2 91,0 3,6 159 - 0,0 0 1.014,1
00:28 19,7 18,2 19,2 91,0 3,4 192 - 0,0 0 1.014,1
00:27 19,7 18,2 19,2 91,0 3,1 197 - 0,0 0 1.014,1
00:26 19,7 18,2 19,2 91,0 3,0 181 - 0,0 0 1.014,1
00:25 19,7 18,2 19,2 91,0 3,2 158 - 0,0 0 1.014,1
00:24 19,7 18,2 19,2 91,0 3,1 192 - 0,0 0 1.014,1
00:23 19,7 18,2 19,2 91,0 3,0 158 - 0,0 0 1.014,2
00:22 19,7 18,2 19,2 91,0 3,4 213 - 0,0 0 1.014,3
00:21 19,7 18,2 19,2 91,0 4,2 210 - 0,0 0 1.014,3
00:20 19,7 18,2 19,2 91,0 4,3 209 - 0,0 0 1.014,3
00:19 19,7 18,2 19,2 91,0 4,3 222 - 0,0 0 1.014,3
00:18 19,7 18,2 19,2 91,0 4,1 232 - 0,0 0 1.014,3
00:17 19,7 18,2 19,2 91,0 3,6 193 - 0,0 0 1.014,3
00:16 19,7 18,2 19,2 91,0 2,9 187 - 0,0 0 1.014,3
00:15 19,7 18,2 19,2 91,0 2,6 176 - 0,0 0 1.014,3
00:14 19,7 18,2 19,2 91,0 2,8 175 - 0,0 0 1.014,3
00:13 19,7 18,2 19,2 91,0 3,3 206 - 0,0 0 1.014,3
00:12 19,7 18,2 19,2 91,0 3,7 211 - 0,0 0 1.014,3
00:11 19,7 18,2 19,2 91,0 3,9 192 - 0,0 0 1.014,2
00:10 19,7 18,2 19,2 91,0 3,8 206 - 0,0 0 1.014,3
00:09 19,7 18,2 19,2 91,0 3,5 178 - 0,0 0 1.014,3
00:08 19,7 18,2 19,2 91,0 3,3 181 - 0,0 0 1.014,4
00:07 19,7 18,2 19,2 91,0 3,4 196 - 0,0 0 1.014,4
00:06 19,7 18,2 19,2 91,0 3,7 222 - 0,0 0 1.014,4
00:05 19,7 18,2 19,2 91,0 3,9 222 - 0,0 0 1.014,4
00:04 19,7 18,2 19,2 91,0 3,8 205 - 0,0 0 1.014,5
00:03 19,7 18,2 19,2 91,0 3,7 188 - 0,0 0 1.014,5
00:02 19,7 18,2 19,2 91,0 3,3 203 - 0,0 0 1.014,5
00:01 19,7 18,2 19,2 91,0 3,0 181 - 0,0 0 1.014,5
00:00 19,7 18,2 19,2 91,0 3,0 227 - 1,8 0 1.014,5
 
23:59 19,7 18,2 19,2 91,0 3,3 200 - 1,8 0 1.014,6
23:58 19,7 18,2 19,2 91,0 3,9 201 - 1,8 0 1.014,6
23:57 19,7 18,2 19,2 91,0 4,0 198 - 1,8 0 1.014,6
23:56 19,7 18,2 19,2 91,0 3,5 195 - 1,8 0 1.014,6
23:55 19,7 18,2 19,2 91,0 3,0 223 - 1,8 0 1.014,6
23:54 19,7 18,2 19,2 91,0 2,9 172 - 1,8 0 1.014,6
23:53 19,7 18,2 19,2 91,0 2,9 222 - 1,8 0 1.014,6
23:52 19,7 18,2 19,2 91,0 2,9 144 - 1,8 0 1.014,6
23:51 19,7 18,2 19,2 91,0 3,3 200 - 1,8 0 1.014,7
23:50 19,7 18,2 19,2 91,0 3,6 210 - 1,8 0 1.014,7
23:49 19,7 18,2 19,2 91,0 3,6 222 - 1,8 0 1.014,7
23:48 19,7 18,2 19,2 91,0 3,6 208 - 1,8 0 1.014,7
23:47 19,7 18,2 19,2 91,0 3,7 233 - 1,8 0 1.014,7
23:46 19,7 18,2 19,2 91,0 3,5 199 - 1,8 0 1.014,7
23:45 19,7 18,2 19,2 91,0 3,4 192 - 1,8 0 1.014,7
23:44 19,7 18,2 19,2 91,0 3,2 226 - 1,8 0 1.014,7
23:43 19,7 18,2 19,2 91,0 3,3 190 - 1,8 0 1.014,7
23:42 19,7 18,2 19,2 91,0 2,9 217 - 1,8 0 1.014,7
23:41 19,7 18,2 19,2 91,0 2,6 197 - 1,8 0 1.014,7
23:40 19,7 18,2 19,2 91,0 2,6 188 - 1,8 0 1.014,7
23:39 19,7 18,2 19,2 91,0 2,8 195 - 1,8 0 1.014,7
23:38 19,7 18,2 19,2 91,0 3,0 175 - 1,8 0 1.014,7
23:37 19,7 18,2 19,2 91,0 2,8 193 - 1,8 0 1.014,7
23:36 19,7 18,1 19,2 90,5 2,9 223 - 1,8 0 1.014,8
23:35 19,7 18,1 19,2 90,7 3,4 203 - 1,8 0 1.014,8
23:34 19,7 18,1 19,2 90,2 3,9 195 - 1,8 0 1.014,7
23:33 19,7 18,0 19,1 90,0 3,6 207 - 1,8 0 1.014,7
23:32 19,7 18,0 19,1 90,0 3,2 222 - 1,8 0 1.014,8
23:31 19,7 18,0 19,1 90,0 3,1 195 - 1,8 0 1.014,9
23:30 19,7 18,0 19,1 90,0 3,4 200 - 1,8 0 1.014,9
23:29 19,7 18,0 19,1 90,0 3,5 190 - 1,8 0 1.014,9
23:28 19,7 18,0 19,2 90,0 3,2 224 - 1,8 0 1.014,9
23:27 19,7 18,0 19,2 90,0 2,9 179 - 1,8 0 1.014,9
23:26 19,7 18,0 19,2 90,0 2,7 192 - 1,8 0 1.014,9
23:25 19,7 18,0 19,1 90,0 2,5 206 - 1,8 0 1.014,9
23:24 19,7 18,0 19,1 90,0 2,4 208 - 1,8 0 1.014,9
23:23 19,7 18,0 19,1 90,0 2,5 191 - 1,8 0 1.014,9
23:22 19,7 18,0 19,1 90,0 2,7 209 - 1,8 0 1.014,9
23:21 19,7 18,0 19,1 90,0 2,8 206 - 1,8 0 1.014,9
23:20 19,7 18,0 19,2 90,0 2,8 203 - 1,8 0 1.014,9
23:19 19,7 18,0 19,1 90,0 2,9 205 - 1,8 0 1.014,9
23:18 19,7 18,0 19,1 90,0 2,8 207 - 1,8 0 1.014,9
23:17 19,7 18,0 19,1 90,0 3,0 158 - 1,8 0 1.015,0
23:16 19,7 18,0 19,1 90,0 3,1 172 - 1,8 0 1.015,0
23:15 19,7 18,0 19,1 90,0 3,3 215 - 1,8 0 1.015,0
23:14 19,7 18,0 19,1 90,0 3,5 206 - 1,8 0 1.015,0
23:13 19,7 18,0 19,1 90,0 3,5 184 - 1,8 0 1.014,9
23:12 19,7 18,0 19,1 90,0 3,5 197 - 1,6 0 1.014,9
23:11 19,7 18,0 19,1 90,0 3,5 184 - 1,6 0 1.015,0
23:10 19,7 18,0 19,1 90,0 3,6 204 - 1,6 0 1.015,0
23:09 19,7 18,0 19,1 90,0 3,9 225 - 1,6 0 1.015,0
23:08 19,7 18,0 19,2 90,0 3,9 190 - 1,6 0 1.015,0
23:07 19,7 18,0 19,1 90,0 4,1 228 - 1,6 0 1.015,0
23:06 19,7 18,0 19,1 90,0 4,3 207 - 1,6 0 1.015,1
23:05 19,7 18,0 19,1 90,0 4,7 206 - 1,6 0 1.015,1
23:04 19,7 18,0 19,1 90,0 4,6 207 - 1,6 0 1.015,1
23:03 19,7 17,9 19,1 89,8 4,3 208 - 1,6 0 1.015,1
23:02 19,7 17,8 19,6 89,0 3,9 217 - 1,6 0 1.015,1
23:01 19,6 17,8 19,6 89,0 3,4 208 - 1,6 0 1.015,1
23:00 19,7 17,8 19,6 89,0 3,2 218 - 1,6 0 1.015,0
 
22:59 19,6 17,8 19,5 89,0 3,5 223 - 1,6 0 1.015,0
22:58 19,6 17,8 19,5 89,0 3,6 228 - 1,6 0 1.015,1
22:57 19,6 17,8 19,5 89,0 3,2 211 - 1,6 0 1.015,0
22:56 19,6 17,8 19,5 89,0 3,0 203 - 1,6 0 1.015,0
22:55 19,6 17,7 19,5 89,0 3,2 178 - 1,6 0 1.015,0
22:54 19,6 17,7 19,5 89,0 3,1 177 - 1,6 0 1.015,1
22:53 19,6 17,8 19,6 89,0 2,8 195 - 1,6 0 1.015,1
22:52 19,6 17,7 19,5 89,0 2,7 180 - 1,6 0 1.015,1
22:51 19,6 17,7 19,5 89,0 2,6 201 - 1,6 0 1.015,1
22:50 19,6 17,7 19,5 89,0 2,6 209 - 1,6 0 1.015,1
22:49 19,6 17,7 19,5 89,0 2,8 173 - 1,6 0 1.015,1
22:48 19,6 17,7 19,5 89,0 3,2 178 - 1,6 0 1.015,1
22:47 19,6 17,7 19,5 89,0 3,3 183 - 1,6 0 1.015,2
22:46 19,6 17,7 19,5 89,0 3,1 201 - 1,6 0 1.015,2
22:45 19,6 17,7 19,5 89,0 2,7 182 - 1,6 0 1.015,2
22:44 19,6 17,7 19,5 89,0 2,9 212 - 1,6 0 1.015,2
22:43 19,6 17,7 19,5 89,0 2,9 197 - 1,6 0 1.015,3
22:42 19,6 17,7 19,5 89,0 2,7 199 - 1,6 0 1.015,3
22:41 19,6 17,7 19,5 89,0 2,5 161 - 1,6 0 1.015,3
22:40 19,6 17,7 19,5 89,0 2,3 194 - 1,6 0 1.015,3
22:39 19,5 17,7 19,5 89,0 2,5 204 - 1,6 0 1.015,3
22:38 19,5 17,6 19,4 89,0 2,5 193 - 1,6 0 1.015,3
22:37 19,5 17,6 19,4 89,0 1,9 206 - 1,6 0 1.015,3
22:36 19,5 17,7 19,4 89,0 1,6 138 - 1,6 0 1.015,3
22:35 19,5 17,6 19,4 89,0 1,5 188 - 1,6 0 1.015,3
22:34 19,5 17,7 19,4 89,0 1,5 199 - 1,6 0 1.015,3
22:33 19,5 17,6 19,4 89,0 1,7 178 - 1,6 0 1.015,3
22:32 19,5 17,6 19,4 89,0 1,9 203 - 1,6 0 1.015,3
22:31 19,5 17,6 19,4 89,0 2,1 160 - 1,6 0 1.015,4
22:30 19,5 17,5 19,3 88,2 2,2 215 - 1,6 0 1.015,3
22:29 19,5 17,5 19,3 88,0 2,4 161 - 1,6 0 1.015,3
22:28 19,5 17,4 19,2 88,0 2,3 197 - 1,6 0 1.015,3
22:27 19,5 17,5 19,3 88,0 2,4 181 - 1,6 0 1.015,4
22:26 19,5 17,4 19,3 88,0 2,4 187 - 1,6 0 1.015,4
22:25 19,5 17,4 19,3 88,0 2,4 178 - 1,6 0 1.015,3
22:24 19,5 17,5 19,3 88,0 2,6 159 - 1,6 0 1.015,3
22:23 19,5 17,4 19,2 88,0 2,7 199 - 1,6 0 1.015,3
22:22 19,5 17,4 19,2 88,0 2,6 182 - 1,6 0 1.015,3
22:21 19,5 17,4 19,2 88,0 2,5 195 - 1,6 0 1.015,3
22:20 19,5 17,4 19,2 88,0 2,7 203 - 1,6 0 1.015,3
22:19 19,5 17,4 19,2 88,0 2,4 204 - 1,6 0 1.015,3
22:18 19,5 17,4 19,3 88,0 1,9 180 - 1,6 0 1.015,2
22:17 19,5 17,5 19,3 88,0 1,8 193 - 1,6 0 1.015,2
22:16 19,5 17,5 19,3 88,0 1,7 199 - 1,6 0 1.015,3
22:15 19,5 17,5 19,3 88,4 2,0 141 - 1,6 0 1.015,3
22:14 19,5 17,6 19,4 89,0 2,1 172 - 1,6 0 1.015,3
22:13 19,5 17,5 19,3 88,3 2,0 200 - 1,6 0 1.015,4
22:12 19,5 17,5 19,3 88,0 1,8 184 - 1,6 0 1.015,4
22:11 19,6 17,5 19,3 88,2 1,9 192 - 1,6 0 1.015,4
22:10 19,6 17,6 19,4 88,7 1,7 206 - 1,6 0 1.015,4
22:09 19,6 17,6 19,4 88,5 1,8 202 - 1,6 0 1.015,4
22:08 19,6 17,7 19,5 89,0 1,9 203 - 1,6 0 1.015,3
22:07 19,6 17,7 19,5 89,0 2,1 190 - 1,6 0 1.015,3
22:06 19,6 17,7 19,5 89,0 1,8 183 - 1,6 0 1.015,3
22:05 19,6 17,8 19,6 89,0 1,4 161 - 1,6 0 1.015,3
22:04 19,7 17,8 19,6 89,0 1,1 245 - 1,6 0 1.015,4
22:03 19,7 17,8 19,6 89,0 1,4 209 - 1,6 0 1.015,4
22:02 19,7 17,8 19,6 89,0 1,6 191 - 1,6 0 1.015,4
22:01 19,7 17,8 19,6 89,0 1,6 191 - 1,6 0 1.015,4
22:00 19,7 17,8 19,6 89,0 1,5 188 - 1,6 0 1.015,4
 
21:59 19,7 17,9 19,6 89,0 1,5 165 - 1,6 0 1.015,3
21:58 19,7 17,9 19,6 89,0 1,7 203 - 1,6 0 1.015,3
21:57 19,7 17,9 19,6 89,0 1,7 159 - 1,6 0 1.015,4
21:56 19,7 17,8 19,6 89,0 1,9 199 - 1,6 0 1.015,4
21:55 19,7 17,9 19,7 89,0 2,2 199 - 1,6 0 1.015,4
21:54 19,7 17,9 19,7 89,0 2,2 210 - 1,6 0 1.015,4
21:53 19,7 17,9 19,7 89,0 2,4 195 - 1,6 0 1.015,4
21:52 19,7 17,9 19,6 89,0 3,0 205 - 1,6 0 1.015,5
21:51 19,7 17,9 19,6 89,0 3,3 175 - 1,6 0 1.015,5
21:50 19,7 17,9 19,6 89,0 3,3 189 - 1,6 0 1.015,5
21:49 19,7 17,9 19,6 89,0 3,0 201 - 1,6 0 1.015,5
21:48 19,7 17,9 19,7 89,0 2,7 206 - 1,6 0 1.015,5
21:47 19,8 17,9 19,7 89,0 2,7 236 - 1,6 0 1.015,4
21:46 19,8 17,9 19,7 89,0 2,9 215 - 1,6 0 1.015,4
21:45 19,8 17,9 19,7 89,0 2,9 213 - 1,6 0 1.015,4
21:44 19,8 17,9 19,7 89,0 2,8 202 - 1,6 0 1.015,4
21:43 19,8 17,9 19,7 89,0 2,8 206 - 1,6 0 1.015,5
21:42 19,8 17,9 19,7 89,0 2,9 208 - 1,6 0 1.015,5
21:41 19,8 17,8 19,6 88,6 1,7 224 - 1,6 0 1.015,5
21:40 19,8 17,7 19,6 88,0 1,2 350 - 1,6 0 1.015,6
21:39 19,8 17,8 19,6 88,0 1,4 203 - 1,6 0 1.015,6
21:38 19,8 17,8 19,6 88,0 2,9 226 - 1,6 0 1.015,6
21:37 19,8 17,8 19,6 88,0 3,1 222 - 1,6 0 1.015,6
21:36 19,8 17,8 19,7 88,3 3,0 204 - 1,6 0 1.015,6
21:35 19,9 18,0 19,8 89,0 2,9 205 - 1,6 0 1.015,6
21:34 19,9 18,0 19,8 89,0 2,9 209 - 1,6 0 1.015,7
21:33 19,9 17,9 19,8 88,5 3,3 217 - 1,6 0 1.015,6
21:32 19,9 17,9 19,7 88,0 3,6 221 - 1,6 0 1.015,6
21:31 19,9 17,9 19,7 88,0 3,7 206 - 1,6 0 1.015,7
21:30 19,9 17,9 19,7 88,0 3,8 232 - 1,6 0 1.015,7
21:29 19,9 17,9 19,7 88,0 4,0 251 - 1,6 0 1.015,7
21:28 19,9 17,9 19,7 88,0 3,6 255 - 1,6 0 1.015,7
21:27 20,0 17,9 19,8 88,0 3,3 202 - 1,6 0 1.015,7
21:26 20,0 17,9 19,8 88,0 3,7 218 - 1,6 0 1.015,7
21:25 20,0 17,9 19,8 88,0 3,6 224 - 1,6 0 1.015,7
21:24 20,0 18,0 19,8 88,0 3,3 218 - 1,6 0 1.015,7
21:23 20,0 18,0 19,8 88,0 3,2 222 - 1,6 0 1.015,7
21:22 20,1 18,0 19,8 88,0 3,9 227 - 1,6 0 1.015,8
21:21 20,1 18,0 19,9 88,0 4,6 233 - 1,6 0 1.015,8
21:20 20,1 18,0 19,9 88,0 4,7 245 - 1,6 0 1.015,8
21:19 20,1 18,0 19,9 88,0 4,9 191 - 1,6 0 1.015,8
21:18 20,1 18,0 19,9 88,0 5,1 216 - 1,6 0 1.015,8
21:17 20,1 18,0 19,9 88,0 4,9 215 - 1,6 0 1.015,7
21:16 20,1 18,0 19,9 88,0 5,2 240 - 1,6 0 1.015,7
21:15 20,1 18,0 19,9 88,0 5,7 228 - 1,6 0 1.015,6
21:14 20,1 18,0 19,9 88,0 5,5 221 - 1,6 0 1.015,6
21:13 20,1 18,0 19,9 88,0 5,2 253 - 1,6 0 1.015,6
21:12 20,1 18,0 19,9 88,0 5,3 227 - 1,6 0 1.015,6
21:11 20,1 18,0 19,9 88,0 5,7 228 - 1,6 0 1.015,6
21:10 20,1 18,0 19,9 88,0 5,7 233 - 1,6 0 1.015,7
21:09 20,1 18,0 19,9 88,0 5,6 244 - 1,6 0 1.015,7
21:08 20,1 18,0 19,9 88,0 5,2 237 - 1,6 0 1.015,7
21:07 20,1 18,0 19,9 88,0 4,6 265 - 1,6 0 1.015,7
21:06 20,1 18,0 19,9 88,0 4,5 208 - 1,6 0 1.015,7
21:05 20,1 18,0 19,9 88,0 4,9 243 - 1,6 0 1.015,7
21:04 20,1 18,0 19,9 88,0 5,3 217 - 1,6 0 1.015,6
21:03 20,1 18,0 19,9 88,0 5,2 217 - 1,6 0 1.015,7
21:02 20,1 18,1 19,9 88,0 5,1 256 - 1,6 0 1.015,7
21:01 20,1 18,1 19,9 88,0 5,0 213 - 1,6 0 1.015,7
21:00 20,1 18,1 19,9 88,0 5,3 232 - 1,6 0 1.015,7
 
20:59 20,1 18,1 19,9 88,0 5,5 205 - 1,6 0 1.015,8
20:58 20,1 18,0 19,8 87,5 5,9 231 - 1,6 0 1.015,8
20:57 20,1 17,9 19,8 87,0 6,1 230 - 1,6 0 1.015,7
20:56 20,1 17,9 19,7 87,0 5,8 207 - 1,6 0 1.015,7
20:55 20,1 17,9 19,7 87,0 5,5 241 - 1,6 0 1.015,7
20:54 20,1 17,8 19,7 87,0 5,7 237 - 1,6 0 1.015,7
20:53 20,1 17,8 19,7 87,0 5,7 234 - 1,6 0 1.015,7
20:52 20,1 17,8 19,7 87,0 5,7 225 - 1,6 0 1.015,6
20:51 20,1 17,8 19,7 87,0 5,1 246 - 1,6 0 1.015,7
20:50 20,1 17,8 19,7 87,0 4,4 203 - 1,6 0 1.015,7
20:49 20,1 17,9 19,8 87,0 4,1 213 - 1,6 0 1.015,7
20:48 20,1 17,8 19,7 87,0 4,1 222 - 1,6 0 1.015,7
20:47 20,1 17,9 19,7 87,0 4,3 217 - 1,6 0 1.015,8
20:46 20,1 17,9 19,7 87,0 4,5 213 - 1,6 0 1.015,8
20:45 20,1 17,9 19,8 87,0 4,8 240 - 1,6 0 1.015,7
20:44 20,1 17,9 19,7 87,0 4,9 192 - 1,6 0 1.015,8
20:43 20,1 17,9 19,7 87,0 4,9 247 - 1,6 0 1.015,8
20:42 20,1 17,8 19,7 87,0 5,3 239 - 1,6 0 1.015,8
20:41 20,1 17,8 19,7 87,0 5,3 244 - 1,6 0 1.015,8
20:40 20,1 17,8 19,7 87,0 5,3 232 - 1,6 0 1.015,8
20:39 20,1 17,9 19,7 87,0 5,2 255 - 1,6 0 1.015,8
20:38 20,1 17,9 19,7 87,0 4,9 234 - 1,6 0 1.015,8
20:37 20,1 17,9 19,8 87,0 4,7 219 - 1,6 0 1.015,7
20:36 20,1 17,9 19,8 87,0 4,5 226 - 1,6 0 1.015,6
20:35 20,1 17,9 19,8 87,0 4,6 208 - 1,6 0 1.015,6
20:34 20,2 17,9 19,8 87,0 4,4 224 - 1,6 0 1.015,6
20:33 20,2 17,9 19,8 87,0 4,6 244 - 1,6 0 1.015,7
20:32 20,2 18,0 19,9 87,0 4,6 232 - 1,6 0 1.015,7
20:31 20,2 17,8 19,7 86,0 4,6 261 - 1,6 0 1.015,8
20:30 20,2 17,8 19,7 86,0 4,6 204 - 1,6 0 1.015,8
20:29 20,2 17,8 19,7 86,0 5,0 245 - 1,6 0 1.015,9
20:28 20,3 17,8 19,8 86,0 5,2 243 - 1,6 0 1.015,9
20:27 20,3 17,9 19,8 86,0 5,2 209 - 1,6 0 1.015,9
20:26 20,3 17,9 19,8 86,0 5,1 253 - 1,6 0 1.015,8
20:25 20,3 17,9 19,8 86,0 5,6 269 - 1,6 0 1.015,8
20:24 20,3 17,9 19,8 86,0 5,5 242 - 1,6 0 1.015,9
20:23 20,3 17,9 19,8 86,0 5,7 215 - 1,6 0 1.015,9
20:22 20,3 17,9 19,8 86,0 5,6 225 - 1,6 0 1.015,8
20:21 20,3 17,9 19,9 86,0 5,5 215 - 1,6 0 1.015,9
20:20 20,3 17,9 19,9 86,0 5,7 241 - 1,6 0 1.015,8
20:19 20,4 17,9 19,9 86,0 6,0 237 - 1,6 0 1.015,9
20:18 20,4 17,9 19,9 86,0 6,1 253 - 1,6 0 1.015,9
20:17 20,4 18,0 19,9 86,0 6,3 219 - 1,6 0 1.015,9
20:16 20,3 17,9 19,9 86,0 6,7 255 - 1,6 0 1.016,0
20:15 20,3 17,9 19,9 86,0 7,2 244 - 1,6 0 1.016,0
20:14 20,3 17,9 19,8 86,0 7,5 241 - 1,6 0 1.016,0
20:13 20,3 17,9 19,8 86,0 7,7 224 - 1,6 3 1.016,0
20:12 20,3 17,9 19,8 86,0 7,6 251 - 1,6 5 1.015,9
20:11 20,3 17,9 19,8 86,0 7,4 256 - 1,6 7 1.015,8
20:10 20,2 17,8 19,7 86,0 7,4 232 - 1,6 7 1.015,8
20:09 20,2 17,8 19,7 86,0 7,3 249 - 1,6 9 1.015,8
20:08 20,2 17,8 19,7 86,0 7,0 229 - 1,6 10 1.015,8
20:07 20,2 17,8 19,7 86,0 6,5 244 - 1,6 11 1.015,6
20:06 20,2 17,8 19,7 86,0 6,1 232 - 1,6 11 1.015,7
20:05 20,2 17,8 19,7 86,0 5,9 210 - 1,6 11 1.015,6
20:04 20,2 17,8 19,7 86,0 5,6 207 - 1,6 12 1.015,6
20:03 20,2 17,8 19,7 86,0 5,0 240 - 1,6 12 1.015,6
20:02 20,2 17,8 19,7 86,0 5,2 175 - 1,6 12 1.015,7
20:01 20,2 17,8 19,7 86,0 5,7 232 - 1,6 12 1.015,7
20:00 20,2 17,8 19,7 86,0 6,1 220 - 1,6 12 1.015,7
 
19:59 20,2 17,8 19,7 86,0 6,2 196 - 1,6 12 1.015,8
19:58 20,2 17,8 19,7 86,0 6,2 205 - 1,6 14 1.015,9
19:57 20,2 17,8 19,7 86,0 6,2 230 - 1,6 14 1.015,9
19:56 20,2 17,8 19,7 86,0 6,0 226 - 1,6 15 1.015,8
19:55 20,2 17,8 19,7 86,0 5,9 257 - 1,6 16 1.015,7
19:54 20,2 17,8 19,7 86,0 5,9 244 - 1,6 18 1.015,8
19:53 20,2 17,8 19,7 86,0 5,9 225 - 1,6 18 1.015,7
19:52 20,2 17,8 19,7 86,0 5,6 226 - 1,6 18 1.015,7
19:51 20,2 17,8 19,7 86,0 5,3 260 - 1,6 16 1.015,6
19:50 20,3 17,9 19,8 86,0 5,1 224 - 1,6 16 1.015,6
19:49 20,3 17,8 19,7 85,7 4,9 249 - 1,6 16 1.015,7
19:48 20,3 17,7 19,6 85,0 4,8 255 - 1,6 14 1.015,8
19:47 20,3 17,7 19,7 85,0 4,9 230 - 1,6 14 1.015,8
19:46 20,3 17,8 19,7 85,0 5,3 234 - 1,6 16 1.015,9
19:45 20,3 17,7 19,7 85,0 5,7 250 - 1,6 16 1.015,9
19:44 20,3 17,8 19,7 85,0 5,9 234 - 1,6 16 1.015,9
19:43 20,3 17,8 19,7 85,0 5,9 215 - 1,6 17 1.016,0
19:42 20,3 17,7 19,7 85,0 6,1 259 - 1,6 19 1.016,0
19:41 20,4 17,8 19,7 85,0 6,5 232 - 1,6 21 1.016,0
19:40 20,4 17,8 19,7 85,0 6,4 242 - 1,6 24 1.016,0
19:39 20,4 17,6 19,6 84,1 6,1 247 - 1,6 24 1.015,9
19:38 20,3 17,6 19,5 84,0 5,9 236 - 1,6 22 1.015,9
19:37 20,3 17,6 19,5 84,0 5,8 217 - 1,6 21 1.015,9
19:36 20,3 17,6 19,5 84,0 5,6 238 - 1,6 18 1.015,9
19:35 20,3 17,6 19,5 84,0 5,5 227 - 1,6 18 1.015,9
19:34 20,3 17,6 19,5 84,0 5,5 240 - 1,6 18 1.016,0
19:33 20,3 17,6 19,5 84,0 5,8 234 - 1,6 19 1.016,0
19:32 20,3 17,6 19,5 84,0 6,0 242 - 1,6 19 1.016,0
19:31 20,3 17,6 19,5 84,0 6,0 249 - 1,6 21 1.015,9
19:30 20,3 17,6 19,5 84,0 5,9 234 - 1,6 21 1.015,7
19:29 20,3 17,5 19,5 84,0 5,8 238 - 1,6 21 1.015,5
19:28 20,3 17,6 19,5 84,0 5,9 238 - 1,6 20 1.015,5
19:27 20,3 17,6 19,5 84,0 6,0 238 - 1,6 18 1.015,6
19:26 20,3 17,6 19,5 84,0 5,9 248 - 1,6 17 1.015,5
19:25 20,3 17,6 19,5 84,0 5,9 235 - 1,6 16 1.015,5
19:24 20,3 17,6 19,5 84,0 5,7 229 - 1,6 16 1.015,4
19:23 20,3 17,5 19,5 84,0 5,7 267 - 1,6 14 1.015,4
19:22 20,3 17,5 19,5 84,0 5,8 261 - 1,6 13 1.015,3
19:21 20,3 17,5 19,5 84,0 4,9 249 - 1,6 13 1.015,3
19:20 20,3 17,5 19,5 84,0 4,6 181 - 1,6 14 1.015,3
19:19 20,3 17,5 19,5 84,0 4,7 269 - 1,6 14 1.015,3
19:18 20,3 17,5 19,5 84,0 5,7 259 - 1,6 14 1.015,4
19:17 20,3 17,6 19,6 84,8 5,4 231 - 1,6 17 1.015,5
19:16 20,3 17,6 19,5 84,1 5,5 208 - 1,6 18 1.015,5
19:15 20,3 17,5 19,5 84,0 5,3 232 - 1,6 20 1.015,6
19:14 20,3 17,5 19,5 84,0 5,5 242 - 1,6 22 1.015,6
19:13 20,3 17,5 19,5 84,0 5,7 249 - 1,6 25 1.015,6
19:12 20,3 17,5 19,5 84,0 5,8 232 - 1,6 28 1.015,6
19:11 20,3 17,5 19,5 84,0 5,7 219 - 1,6 28 1.015,6
19:10 20,3 17,5 19,5 84,1 5,6 238 - 1,6 30 1.015,5
19:09 20,3 17,7 19,6 84,8 5,6 251 - 1,6 34 1.015,5
19:08 20,3 17,6 19,5 84,4 5,6 239 - 1,6 35 1.015,5
19:07 20,3 17,7 19,6 85,0 5,8 257 - 1,6 35 1.015,5
19:06 20,3 17,7 19,6 85,0 6,0 236 - 1,6 35 1.015,5
19:05 20,3 17,7 19,6 85,0 6,2 225 - 1,6 36 1.015,5
19:04 20,3 17,7 19,6 85,0 6,0 216 - 1,6 38 1.015,5
19:03 20,3 17,7 19,6 85,0 5,6 231 - 1,6 41 1.015,5
19:02 20,3 17,7 19,6 85,0 5,5 249 - 1,6 43 1.015,5
19:01 20,2 17,6 19,6 85,0 5,3 224 - 1,6 46 1.015,5
19:00 20,2 17,6 19,6 85,0 5,3 219 - 1,6 49 1.015,4
 
18:59 20,2 17,6 19,6 85,0 5,3 238 - 1,6 54 1.015,4
18:58 20,2 17,6 19,6 85,0 5,4 224 - 1,6 58 1.015,4
18:57 20,2 17,6 19,5 85,0 5,4 249 - 1,6 62 1.015,4
18:56 20,2 17,6 19,5 85,0 5,3 226 - 1,6 66 1.015,3
18:55 20,2 17,6 19,6 85,0 5,0 244 - 1,6 69 1.015,3
18:54 20,2 17,6 19,5 85,0 4,7 216 - 1,6 69 1.015,3
18:53 20,2 17,6 19,5 85,0 4,5 251 - 1,6 68 1.015,3
18:52 20,2 17,6 19,5 85,0 4,6 206 - 1,6 64 1.015,3
18:51 20,2 17,6 19,5 85,0 4,9 222 - 1,6 60 1.015,3
18:50 20,2 17,6 19,5 85,0 5,0 228 - 1,6 58 1.015,3
18:49 20,2 17,6 19,5 85,0 5,0 231 - 1,6 56 1.015,4
18:48 20,2 17,6 19,5 85,0 5,0 249 - 1,6 58 1.015,4
18:47 20,2 17,6 19,5 85,0 5,1 235 - 1,6 58 1.015,4
18:46 20,2 17,6 19,6 85,0 5,3 239 - 1,6 59 1.015,4
18:45 20,2 17,6 19,6 85,0 5,5 232 - 1,6 61 1.015,4
18:44 20,2 17,6 19,6 85,0 5,4 230 - 1,6 64 1.015,5
18:43 20,2 17,6 19,6 85,0 5,4 251 - 1,6 67 1.015,5
18:42 20,2 17,7 19,6 85,0 5,5 253 - 1,6 65 1.015,6
18:41 20,3 17,7 19,6 85,0 5,3 269 - 1,6 63 1.015,6
18:40 20,3 17,7 19,6 85,0 5,4 219 - 1,6 63 1.015,6
18:39 20,3 17,7 19,6 84,7 5,7 249 - 1,6 62 1.015,6
18:38 20,3 17,5 19,5 84,0 5,9 249 - 1,6 62 1.015,6
18:37 20,3 17,6 19,5 84,0 6,1 261 - 1,6 62 1.015,6
18:36 20,3 17,6 19,5 84,0 6,2 253 - 1,6 66 1.015,5
18:35 20,3 17,6 19,5 84,0 5,4 263 - 1,6 70 1.015,4
18:34 20,4 17,6 19,6 84,0 5,3 193 - 1,6 76 1.015,4
18:33 20,4 17,5 19,5 83,7 5,6 250 - 1,6 84 1.015,4
18:32 20,4 17,4 19,4 83,0 6,1 249 - 1,6 92 1.015,4
18:31 20,4 17,4 19,4 83,0 6,0 227 - 1,6 100 1.015,4
18:30 20,4 17,4 19,4 83,0 5,8 209 - 1,6 106 1.015,4
18:29 20,4 17,4 19,4 83,0 5,8 255 - 1,6 109 1.015,5
18:28 20,4 17,4 19,4 83,0 6,2 228 - 1,6 117 1.015,4
18:27 20,4 17,4 19,5 83,0 6,7 221 - 1,6 126 1.015,5
18:26 20,4 17,4 19,4 83,0 7,1 242 - 1,6 137 1.015,5
18:25 20,4 17,4 19,4 83,0 7,1 228 - 1,6 140 1.015,5
18:24 20,4 17,4 19,4 83,0 7,0 263 - 1,6 142 1.015,6
18:23 20,4 17,4 19,4 83,0 7,4 255 - 1,6 131 1.015,6
18:22 20,4 17,4 19,4 82,8 7,5 257 - 1,6 128 1.015,7
18:21 20,3 17,2 19,2 82,0 7,4 247 - 1,6 126 1.015,7
18:20 20,3 17,2 19,2 82,0 7,1 266 - 1,6 128 1.015,7
18:19 20,3 17,2 19,2 82,0 7,2 227 - 1,6 121 1.015,6
18:18 20,3 17,2 19,2 82,0 7,6 255 - 1,6 120 1.015,6
18:17 20,3 17,2 19,2 82,0 8,0 249 - 1,6 113 1.015,5
18:16 20,3 17,2 19,2 82,0 7,8 252 - 1,6 101 1.015,5
18:15 20,3 17,2 19,2 82,0 7,3 230 - 1,6 92 1.015,5
18:14 20,3 17,2 19,2 82,0 6,3 195 - 1,6 87 1.015,5
18:13 20,3 17,2 19,2 82,0 6,5 284 - 1,6 88 1.015,5
18:12 20,3 17,2 19,2 82,0 7,6 258 - 1,6 77 1.015,5
18:11 20,3 17,2 19,2 82,0 7,8 233 - 1,6 75 1.015,5
18:10 20,3 17,2 19,2 82,0 7,7 261 - 1,6 71 1.015,5
18:09 20,3 17,2 19,2 82,0 7,3 273 - 1,6 72 1.015,5
18:08 20,3 17,2 19,2 82,0 7,2 213 - 1,6 85 1.015,5
18:07 20,3 17,2 19,2 82,0 7,5 257 - 1,6 87 1.015,5
18:06 20,3 17,2 19,2 82,0 7,6 259 - 1,6 105 1.015,5
18:05 20,3 17,3 19,3 83,0 7,3 228 - 1,6 127 1.015,5
18:04 20,3 17,4 19,4 83,0 7,0 245 - 1,6 150 1.015,5
18:03 20,3 17,4 19,4 83,0 6,9 259 - 1,6 165 1.015,5
18:02 20,3 17,4 19,4 83,0 6,7 239 - 1,6 171 1.015,5
18:01 20,3 17,4 19,4 83,0 6,8 244 - 1,6 160 1.015,6
18:00 20,3 17,4 19,4 83,0 6,8 248 - 1,6 147 1.015,5
 
17:59 20,3 17,4 19,4 83,0 6,8 268 - 1,6 123 1.015,6
17:58 20,3 17,4 19,4 83,0 6,7 244 - 1,6 115 1.015,6
17:57 20,3 17,4 19,4 83,0 6,6 234 - 1,6 91 1.015,6
17:56 20,4 17,4 19,4 83,0 5,9 274 - 1,6 73 1.015,6
17:55 20,4 17,4 19,4 83,0 5,2 197 - 1,6 70 1.015,6
17:54 20,4 17,4 19,4 83,0 5,6 181 - 1,6 64 1.015,6
17:53 20,4 17,4 19,4 83,0 5,6 254 - 1,6 60 1.015,6
17:52 20,4 17,4 19,4 83,0 6,2 228 - 1,6 55 1.015,6
17:51 20,4 17,4 19,4 83,0 6,2 257 - 1,6 57 1.015,6
17:50 20,4 17,4 19,4 83,0 6,4 257 - 1,6 60 1.015,5
17:49 20,4 17,4 19,5 83,0 6,4 259 - 1,6 47 1.015,5
17:48 20,4 17,4 19,4 83,0 6,0 236 - 1,6 43 1.015,6
17:47 20,4 17,4 19,4 83,0 6,2 190 - 1,6 34 1.015,6
17:46 20,4 17,5 19,5 83,0 6,0 246 - 1,6 33 1.015,6
17:45 20,4 17,5 19,5 83,0 6,4 252 - 1,6 38 1.015,6
17:44 20,4 17,5 19,5 83,0 5,8 251 - 1,6 42 1.015,6
17:43 20,4 17,5 19,5 83,0 5,6 202 - 1,6 48 1.015,6
17:42 20,5 17,5 19,5 83,0 5,7 261 - 1,6 53 1.015,6
17:41 20,5 17,5 19,5 83,0 5,8 259 - 1,6 57 1.015,6
17:40 20,5 17,5 19,5 83,0 5,8 207 - 1,6 62 1.015,6
17:39 20,5 17,4 19,5 82,5 6,2 229 - 1,6 66 1.015,6
17:38 20,5 17,5 19,5 82,7 6,7 249 - 1,6 63 1.015,6
17:37 20,6 17,6 19,6 83,0 6,6 245 - 1,6 63 1.015,6
17:36 20,6 17,4 19,5 82,1 6,4 215 - 1,6 62 1.015,5
17:35 20,6 17,4 19,5 82,0 6,5 261 - 1,6 65 1.015,5
17:34 20,6 17,4 19,5 82,0 6,8 245 - 1,6 74 1.015,6
17:33 20,6 17,4 19,5 82,0 6,9 224 - 1,6 89 1.015,6
17:32 20,6 17,5 19,5 82,0 6,8 215 - 1,6 100 1.015,6
17:31 20,6 17,4 19,5 82,0 6,9 249 - 1,6 97 1.015,6
17:30 20,6 17,3 19,3 81,1 7,3 239 - 1,6 93 1.015,6
17:29 20,6 17,2 19,3 81,0 7,8 252 - 1,6 86 1.015,6
17:28 20,6 17,3 19,4 81,4 7,7 241 - 1,6 82 1.015,5
17:27 20,6 17,4 19,5 82,0 8,0 202 - 1,6 83 1.015,5
17:26 20,6 17,4 19,5 82,0 7,5 230 - 1,6 92 1.015,5
17:25 20,6 17,4 19,5 82,0 7,4 250 - 1,6 103 1.015,5
17:24 20,6 17,4 19,5 82,0 7,1 237 - 1,6 122 1.015,5
17:23 20,6 17,5 19,5 82,0 6,9 250 - 1,6 139 1.015,5
17:22 20,7 17,5 19,6 82,0 6,5 257 - 1,6 161 1.015,5
17:21 20,7 17,5 19,6 82,0 6,5 222 - 1,6 165 1.015,5
17:20 20,7 17,5 19,6 82,0 6,8 234 - 1,6 162 1.015,5
17:19 20,7 17,6 19,6 82,0 7,0 221 - 1,6 179 1.015,6
17:18 20,7 17,6 19,6 82,0 7,1 208 - 1,6 230 1.015,6
17:17 20,8 17,5 19,6 81,7 7,1 232 - 1,6 177 1.015,5
17:16 20,8 17,5 19,6 81,5 7,3 223 - 1,6 318 1.015,6
17:15 20,8 17,5 19,6 81,4 7,7 244 - 1,6 362 1.015,6
17:14 20,7 17,4 19,5 81,0 8,0 232 - 1,6 328 1.015,6
17:13 20,7 17,4 19,5 81,0 8,1 251 - 1,6 172 1.015,5
17:12 20,7 17,4 19,5 81,0 6,6 251 9,8 1,6 255 1.015,5
17:11 20,7 17,3 19,4 81,0 6,6 166 9,8 1,6 323 1.015,5
17:10 20,7 17,4 19,5 81,5 7,6 251 10,7 1,6 323 1.015,5
17:09 20,6 17,5 19,5 82,0 9,1 232 - 1,6 275 1.015,5
17:08 20,6 17,5 19,5 82,0 8,9 256 - 1,6 292 1.015,5
17:07 20,6 17,5 19,5 82,0 8,3 246 - 1,6 239 1.015,5
17:06 20,6 17,4 19,5 82,0 8,1 216 - 1,6 163 1.015,6
17:05 20,6 17,5 19,5 82,4 8,3 217 - 1,6 130 1.015,5
17:04 20,6 17,6 19,6 83,0 8,5 230 - 1,6 130 1.015,5
17:03 20,6 17,6 19,6 83,0 8,4 227 - 1,6 128 1.015,5
17:02 20,6 17,6 19,7 83,0 7,8 226 - 1,6 111 1.015,5
17:01 20,6 17,6 19,6 82,9 7,3 205 - 1,6 102 1.015,5
17:00 20,6 17,5 19,6 82,2 7,1 236 - 1,6 109 1.015,5
 
16:59 20,7 17,7 19,7 83,0 7,2 257 - 1,6 132 1.015,5
16:58 20,7 17,6 19,6 82,5 6,5 292 - 1,6 150 1.015,5
16:57 20,7 17,5 19,6 82,0 6,7 213 - 1,6 155 1.015,5
16:56 20,7 17,6 19,6 82,0 7,6 269 10,7 1,6 155 1.015,4
16:55 20,7 17,7 19,8 83,0 7,2 227 - 1,6 290 1.015,5
16:54 20,7 17,7 19,7 82,8 7,6 196 - 1,6 454 1.015,5
16:53 20,7 17,6 19,7 82,4 7,6 206 - 1,6 423 1.015,4
16:52 20,7 17,7 19,7 83,0 7,9 234 - 1,6 485 1.015,4
16:51 20,6 17,7 19,7 83,0 7,9 228 - 1,6 467 1.015,4
16:50 20,6 17,5 19,5 82,2 7,8 239 - 1,6 236 1.015,3
16:49 20,6 17,4 19,5 82,0 7,5 260 - 1,6 238 1.015,2
16:48 20,6 17,4 19,5 82,0 7,4 199 11,2 1,6 206 1.015,3
16:47 20,6 17,4 19,5 82,0 7,9 262 - 1,6 174 1.015,3
16:46 20,6 17,4 19,5 82,0 8,6 231 - 1,6 177 1.015,3
16:45 20,6 17,4 19,5 82,0 8,8 224 - 1,6 163 1.015,3
16:44 20,6 17,6 19,6 82,9 8,3 242 11,6 1,6 161 1.015,3
16:43 20,6 17,6 19,7 83,0 7,4 269 - 1,6 146 1.015,4
16:42 20,6 17,6 19,6 83,0 6,7 189 9,8 1,6 146 1.015,3
16:41 20,6 17,6 19,6 83,0 7,2 280 11,6 1,6 136 1.015,3
16:40 20,6 17,6 19,6 83,0 8,4 269 - 1,6 423 1.015,3
16:39 20,5 17,6 19,6 83,0 8,5 225 - 1,6 449 1.015,3
16:38 20,5 17,7 19,7 83,9 8,3 233 - 1,6 441 1.015,4
16:37 20,4 17,7 19,6 84,0 8,0 259 - 1,6 471 1.015,4
16:36 20,4 17,7 19,6 84,0 7,9 249 - 1,6 471 1.015,4
16:35 20,4 17,7 19,7 84,5 8,0 261 - 1,6 453 1.015,4
16:34 20,4 17,8 19,7 85,0 7,8 256 - 1,6 442 1.015,4
16:33 20,3 17,7 19,7 85,0 7,1 279 - 1,6 478 1.015,4
16:32 20,3 17,7 19,7 85,0 6,7 238 - 1,6 502 1.015,4
16:31 20,3 17,7 19,6 85,0 7,0 238 - 1,6 504 1.015,5
16:30 20,3 17,7 19,6 85,0 6,9 207 - 1,6 346 1.015,5
16:29 20,3 17,7 19,6 85,0 7,1 261 - 1,6 257 1.015,5
16:28 20,3 17,5 19,5 84,2 7,9 255 - 1,6 299 1.015,4
16:27 20,3 17,5 19,5 84,0 8,4 262 - 1,6 176 1.015,4
16:26 20,3 17,5 19,5 84,0 8,8 259 - 1,6 176 1.015,5
16:25 20,3 17,5 19,5 84,0 8,9 271 - 1,6 166 1.015,5
16:24 20,3 17,5 19,4 83,7 9,2 249 - 1,6 137 1.015,5
16:23 20,3 17,4 19,4 83,0 9,7 265 - 1,6 108 1.015,4
16:22 20,3 17,4 19,4 83,0 9,8 268 - 1,6 86 1.015,4
16:21 20,3 17,4 19,4 83,0 9,0 252 - 1,6 95 1.015,4
16:20 20,3 17,3 19,3 83,0 9,0 230 - 1,6 118 1.015,5
16:19 20,3 17,3 19,3 83,0 9,6 225 - 1,6 138 1.015,4
16:18 20,3 17,3 19,3 83,0 10,2 259 - 1,6 158 1.015,4
16:17 20,2 17,3 19,3 83,0 10,5 244 - 1,6 163 1.015,4
16:16 20,2 17,2 19,2 83,0 10,4 253 - 1,6 157 1.015,4
16:15 20,2 17,2 19,2 83,0 10,6 247 - 1,6 116 1.015,4
16:14 20,2 17,2 19,2 83,0 10,8 244 - 1,6 92 1.015,3
16:13 20,2 17,2 19,2 83,0 10,9 257 - 1,6 74 1.015,3
16:12 20,2 17,3 19,3 83,6 10,9 257 - 1,6 70 1.015,3
16:11 20,2 17,4 19,4 84,0 10,6 255 - 1,6 74 1.015,3
16:10 20,2 17,4 19,4 84,0 10,1 249 - 1,6 82 1.015,3
16:09 20,2 17,4 19,4 84,0 9,4 237 - 1,6 92 1.015,3
16:08 20,2 17,4 19,4 84,0 9,1 215 - 1,6 95 1.015,3
16:07 20,2 17,4 19,4 84,0 8,7 252 - 1,6 94 1.015,3
16:06 20,3 17,5 19,4 84,0 8,5 255 - 1,6 106 1.015,3
16:05 20,3 17,5 19,5 84,0 7,9 261 - 1,6 139 1.015,3
16:04 20,3 17,5 19,5 84,0 7,0 284 - 1,6 175 1.015,4
16:03 20,3 17,3 19,3 83,1 6,9 217 - 1,6 178 1.015,4
16:02 20,3 17,4 19,4 83,2 7,2 249 - 1,6 167 1.015,4
16:01 20,3 17,5 19,5 83,7 7,7 284 - 1,6 168 1.015,4
16:00 20,3 17,4 19,4 83,0 7,8 242 - 1,6 173 1.015,5
 
15:59 20,4 17,4 19,4 83,0 8,3 239 - 1,6 187 1.015,5
15:58 20,3 17,4 19,4 83,0 8,3 236 - 1,6 159 1.015,4
15:57 20,4 17,4 19,4 83,0 8,1 260 - 1,6 123 1.015,5
15:56 20,4 17,4 19,4 83,0 7,9 242 - 1,6 143 1.015,5
15:55 20,3 17,4 19,4 83,0 8,3 222 - 1,6 216 1.015,4
15:54 20,3 17,4 19,4 83,0 8,4 233 - 1,6 151 1.015,4
15:53 20,3 17,3 19,3 83,0 8,6 256 - 1,6 128 1.015,5
15:52 20,3 17,3 19,3 83,0 8,6 240 - 1,6 123 1.015,5
15:51 20,3 17,3 19,3 83,0 8,3 237 - 1,6 111 1.015,5
15:50 20,3 17,4 19,4 83,2 7,8 231 - 1,6 122 1.015,6
15:49 20,3 17,5 19,4 83,7 7,5 205 - 1,6 135 1.015,5
15:48 20,3 17,3 19,3 83,0 7,3 182 - 1,6 139 1.015,5
15:47 20,3 17,4 19,4 83,0 5,9 236 - 1,6 144 1.015,5
15:46 20,3 17,4 19,4 83,0 7,1 293 - 1,6 177 1.015,5
15:45 20,3 17,4 19,4 83,0 7,4 255 - 1,6 215 1.015,5
15:44 20,3 17,4 19,4 83,0 8,1 251 - 1,6 233 1.015,5
15:43 20,3 17,4 19,4 83,0 8,4 257 - 1,6 243 1.015,4
15:42 20,3 17,3 19,3 82,5 8,7 247 - 1,6 246 1.015,4
15:41 20,3 17,2 19,2 82,0 9,0 269 - 1,6 239 1.015,4
15:40 20,3 17,2 19,2 82,0 9,3 261 - 1,6 223 1.015,4
15:39 20,3 17,2 19,2 82,0 9,2 263 - 1,6 226 1.015,3
15:38 20,3 17,2 19,2 82,0 9,0 273 - 1,6 231 1.015,3
15:37 20,3 17,2 19,2 82,0 9,0 259 - 1,6 224 1.015,3
15:36 20,3 17,2 19,2 82,0 9,0 271 - 1,6 205 1.015,3
15:35 20,3 17,2 19,2 82,0 8,9 252 - 1,6 204 1.015,2
15:34 20,3 17,2 19,2 82,0 8,5 251 - 1,6 224 1.015,2
15:33 20,3 17,2 19,2 82,0 8,0 247 - 1,6 237 1.015,2
15:32 20,3 17,2 19,2 82,0 7,7 263 - 1,6 223 1.015,2
15:31 20,3 17,2 19,2 82,0 7,7 257 - 1,6 193 1.015,1
15:30 20,4 17,2 19,3 82,0 7,8 249 - 1,6 173 1.015,1
15:29 20,4 17,1 19,2 81,3 8,2 249 - 1,6 156 1.015,1
15:28 20,4 17,1 19,1 81,0 8,3 252 - 1,6 154 1.015,1
15:27 20,4 17,1 19,2 81,0 8,5 208 - 1,6 160 1.015,0
15:26 20,4 17,1 19,2 81,0 9,1 267 - 1,6 168 1.015,0
15:25 20,5 17,1 19,2 80,6 10,7 255 - 1,6 200 1.015,0
15:24 20,5 17,0 19,1 80,0 11,7 249 - 1,6 211 1.015,0
15:23 20,4 16,9 19,0 80,0 12,1 251 - 1,6 236 1.015,0
15:22 20,4 16,9 19,0 80,0 12,4 272 - 1,6 190 1.015,0
15:21 20,4 17,1 19,2 81,0 12,5 257 - 1,6 170 1.015,0
15:20 20,4 17,1 19,2 81,0 12,1 268 - 1,6 163 1.015,1
15:19 20,4 17,1 19,2 81,0 11,2 259 14,3 1,6 178 1.015,1
15:18 20,4 17,1 19,2 81,0 10,4 261 - 1,6 180 1.015,1
15:17 20,4 17,1 19,2 81,0 10,0 232 - 1,6 185 1.015,2
15:16 20,4 17,1 19,2 81,0 9,9 261 - 1,6 183 1.015,2
15:15 20,4 17,1 19,2 81,0 10,6 278 - 1,6 197 1.015,1
15:14 20,4 17,0 19,1 80,7 11,0 279 - 1,6 229 1.015,1
15:13 20,4 17,0 19,1 80,5 11,0 275 - 1,6 273 1.015,1
15:12 20,4 17,0 19,1 81,0 11,3 249 - 1,6 217 1.015,1
15:11 20,3 17,0 19,1 81,0 11,3 267 - 1,6 173 1.015,2
15:10 20,3 17,0 19,1 81,1 10,4 276 - 1,6 162 1.015,2
15:09 20,3 17,2 19,2 82,0 10,0 231 - 1,6 178 1.015,2
15:08 20,3 17,2 19,2 82,0 10,1 253 - 1,6 187 1.015,3
15:07 20,3 17,2 19,2 82,0 10,0 243 - 1,6 205 1.015,3
15:06 20,3 17,2 19,2 82,0 10,4 270 - 1,6 211 1.015,2
15:05 20,3 17,2 19,2 82,0 10,7 263 - 1,6 231 1.015,2
15:04 20,3 17,2 19,2 82,0 10,4 250 - 1,6 281 1.015,2
15:03 20,3 17,2 19,2 82,0 10,5 239 - 1,6 281 1.015,2
15:02 20,3 17,2 19,2 82,0 11,1 258 - 1,6 281 1.015,1
15:01 20,3 17,2 19,2 82,0 11,6 245 - 1,6 296 1.015,1
15:00 20,3 17,2 19,2 82,0 11,8 259 - 1,6 295 1.015,2
 
14:59 20,3 17,3 19,3 82,8 11,8 271 - 1,6 296 1.015,2
14:58 20,3 17,3 19,3 83,0 11,7 267 - 1,6 313 1.015,2
14:57 20,3 17,3 19,3 83,0 11,1 275 - 1,6 374 1.015,2
14:56 20,3 17,3 19,3 83,0 10,7 250 - 1,6 309 1.015,2
14:55 20,3 17,3 19,3 83,0 10,6 263 - 1,6 265 1.015,2
14:54 20,2 17,3 19,3 83,0 11,2 271 - 1,6 260 1.015,2
14:53 20,2 17,3 19,3 83,0 10,8 272 - 1,6 230 1.015,2
14:52 20,3 17,5 19,4 84,0 10,5 231 - 1,6 228 1.015,2
14:51 20,3 17,5 19,5 84,0 10,4 232 - 1,6 233 1.015,2
14:50 20,3 17,6 19,5 84,0 9,1 248 - 1,6 244 1.015,2
14:49 20,4 17,6 19,6 84,0 7,7 185 11,2 1,6 300 1.015,2
14:48 20,4 17,6 19,6 84,0 8,0 276 - 1,6 328 1.015,2
14:47 20,4 17,4 19,4 83,2 10,2 240 - 1,6 329 1.015,1
14:46 20,4 17,4 19,4 83,0 11,5 259 - 1,6 329 1.015,0
14:45 20,4 17,4 19,4 83,0 12,0 261 - 1,6 499 1.014,9
14:44 20,4 17,4 19,4 83,0 12,1 244 - 1,6 613 1.014,9
14:43 20,4 17,4 19,4 83,0 12,3 270 - 1,6 611 1.014,8
14:42 20,3 17,4 19,4 83,0 12,6 255 - 1,6 559 1.014,8
14:41 20,3 17,4 19,4 83,0 12,2 260 - 1,6 311 1.014,8
14:40 20,3 17,4 19,4 83,0 11,9 254 - 1,6 311 1.014,8
14:39 20,3 17,4 19,4 83,0 11,5 260 - 1,6 299 1.014,9
14:38 20,3 17,4 19,4 83,0 10,5 273 - 1,6 288 1.014,9
14:37 20,3 17,4 19,4 83,0 9,7 226 - 1,6 287 1.014,9
14:36 20,3 17,4 19,4 83,0 10,1 217 - 1,6 293 1.014,8
14:35 20,3 17,4 19,4 83,0 10,2 263 - 1,6 308 1.014,8
14:34 20,3 17,5 19,5 84,0 10,7 274 - 1,6 308 1.014,9
14:33 20,3 17,6 19,6 84,3 10,0 263 - 1,6 488 1.014,9
14:32 20,3 17,7 19,7 85,0 9,8 239 - 1,6 589 1.014,9
14:31 20,3 17,7 19,6 85,0 10,0 267 - 1,6 688 1.014,9
14:30 20,2 17,6 19,6 85,0 10,1 267 - 1,6 635 1.014,9
14:29 20,2 17,4 19,4 84,2 9,7 263 - 1,6 315 1.015,0
14:28 20,2 17,5 19,5 84,8 8,8 253 - 1,6 306 1.015,0
14:27 20,2 17,4 19,4 84,0 8,2 281 - 1,6 297 1.015,0
14:26 20,2 17,4 19,4 84,0 8,1 249 - 1,6 283 1.015,0
14:25 20,2 17,4 19,4 84,0 8,3 250 - 1,6 266 1.015,0
14:24 20,2 17,4 19,4 84,0 8,4 256 - 1,6 264 1.015,0
14:23 20,2 17,4 19,4 84,0 8,6 251 - 1,6 234 1.015,0
14:22 20,2 17,4 19,4 84,0 8,9 232 - 1,6 219 1.015,0
14:21 20,2 17,4 19,3 84,0 9,0 262 - 1,6 228 1.015,0
14:20 20,2 17,4 19,4 84,0 9,1 225 - 1,6 193 1.015,0
14:19 20,2 17,4 19,4 84,0 9,0 254 - 1,6 184 1.014,9
14:18 20,2 17,4 19,4 84,0 9,5 275 - 1,6 167 1.014,9
14:17 20,1 17,3 19,3 84,0 9,4 240 - 1,6 152 1.015,0
14:16 20,1 17,3 19,3 84,0 9,8 239 - 1,6 151 1.015,0
14:15 20,1 17,3 19,3 84,0 9,9 231 - 1,6 166 1.015,0
14:14 20,1 17,3 19,3 84,0 10,1 238 - 1,6 174 1.015,0
14:13 20,1 17,5 19,4 84,7 9,5 225 12,5 1,6 173 1.015,0
14:12 20,2 17,6 19,5 85,0 8,5 255 - 1,6 180 1.015,0
14:11 20,2 17,4 19,4 84,3 8,1 197 - 1,6 189 1.015,0
14:10 20,2 17,5 19,5 84,8 8,1 244 - 1,6 204 1.015,0
14:09 20,2 17,5 19,4 84,4 8,6 251 - 1,6 205 1.015,1
14:08 20,2 17,6 19,6 85,0 7,9 251 - 1,6 327 1.015,0
14:07 20,2 17,5 19,4 84,3 7,8 196 - 1,6 328 1.015,1
14:06 20,2 17,4 19,4 84,0 8,1 245 - 1,6 251 1.015,1
14:05 20,2 17,4 19,4 84,0 8,7 202 - 1,6 251 1.015,0
14:04 20,2 17,4 19,4 84,1 8,9 227 - 1,6 241 1.015,0
14:03 20,2 17,5 19,5 84,6 9,4 263 - 1,6 242 1.015,0
14:02 20,2 17,5 19,4 84,4 8,8 269 - 1,6 237 1.015,0
14:01 20,2 17,5 19,5 84,7 8,4 215 - 1,6 233 1.014,9
14:00 20,2 17,6 19,5 85,0 8,8 259 - 1,6 257 1.014,9
 
13:59 20,2 17,6 19,5 84,9 8,8 267 - 1,6 300 1.014,9
13:58 20,2 17,4 19,4 84,0 9,3 202 - 1,6 318 1.014,8
13:57 20,2 17,4 19,4 84,0 10,2 255 - 1,6 638 1.014,8
13:56 20,2 17,4 19,4 84,0 10,8 247 - 1,6 747 1.014,8
13:55 20,2 17,5 19,5 84,7 10,9 285 - 1,6 747 1.014,8
13:54 20,2 17,6 19,5 85,0 7,7 273 13,0 1,6 747 1.014,8
13:53 20,1 17,5 19,5 85,0 7,3 168 11,2 1,6 494 1.014,9
13:52 20,1 17,5 19,5 85,0 8,8 231 - 1,6 241 1.014,9
13:51 20,1 17,5 19,4 85,0 10,3 239 - 1,6 241 1.014,9
13:50 20,1 17,5 19,4 85,0 10,7 262 - 1,6 235 1.014,9
13:49 20,1 17,5 19,4 85,0 10,7 251 - 1,6 173 1.014,8
13:48 20,1 17,5 19,4 85,0 10,6 257 - 1,6 193 1.014,8
13:47 20,1 17,5 19,4 85,0 10,7 249 - 1,6 287 1.014,8
13:46 20,1 17,5 19,4 85,0 10,8 259 - 1,6 240 1.014,7
13:45 20,1 17,5 19,4 85,0 10,6 262 - 1,6 220 1.014,7
13:44 20,1 17,6 19,5 85,6 9,8 263 - 1,6 241 1.014,8
13:43 20,1 17,5 19,4 85,3 9,0 245 - 1,6 273 1.014,8
13:42 20,1 17,5 19,4 85,0 9,0 245 - 1,6 169 1.014,7
13:41 20,1 17,5 19,4 85,0 9,3 240 - 1,6 305 1.014,7
13:40 20,0 17,4 19,4 85,0 9,2 259 - 1,6 417 1.014,7
13:39 20,0 17,4 19,3 85,0 9,7 208 - 1,6 210 1.014,6
13:38 20,0 17,4 19,3 85,0 10,1 244 - 1,6 172 1.014,6
13:37 20,0 17,4 19,3 85,0 9,7 245 - 1,6 168 1.014,7
13:36 20,0 17,4 19,3 85,0 9,0 255 - 1,6 218 1.014,7
13:35 20,0 17,4 19,3 85,0 9,1 266 - 1,6 218 1.014,7
13:34 19,9 17,4 19,3 85,0 8,8 249 - 1,6 186 1.014,7
13:33 19,9 17,4 19,3 85,0 9,6 206 - 1,6 158 1.014,6
13:32 19,9 17,4 19,3 85,0 10,3 233 - 1,6 125 1.014,6
13:31 19,9 17,4 19,3 85,0 11,1 250 - 1,6 97 1.014,6
13:30 19,9 17,4 19,3 85,0 11,4 232 - 1,6 102 1.014,5
13:29 20,0 17,4 19,3 85,0 11,4 250 - 1,6 126 1.014,5
13:28 20,0 17,4 19,4 85,0 11,2 247 - 1,6 139 1.014,5
13:27 20,1 17,5 19,4 85,0 10,9 259 - 1,6 139 1.014,6
13:26 20,1 17,5 19,4 85,0 9,2 264 - 1,6 137 1.014,5
13:25 20,1 17,5 19,5 85,0 8,7 192 - 1,6 118 1.014,5
13:24 20,1 17,4 19,3 84,1 9,2 173 13,9 1,6 110 1.014,4
13:23 20,1 17,4 19,3 84,0 8,9 258 13,9 1,6 111 1.014,5
13:22 20,2 17,4 19,4 84,0 11,3 274 - 1,6 109 1.014,5
13:21 20,2 17,4 19,4 84,0 11,2 263 - 1,6 139 1.014,5
13:20 20,2 17,4 19,4 84,0 11,6 265 - 1,6 292 1.014,4
13:19 20,2 17,6 19,5 84,9 11,6 255 - 1,6 318 1.014,5
13:18 20,2 17,6 19,6 85,0 10,8 249 - 1,6 367 1.014,6
13:17 20,2 17,6 19,6 85,0 9,9 233 - 1,6 367 1.014,6
13:16 20,2 17,6 19,5 85,0 9,4 259 - 1,6 367 1.014,6
13:15 20,2 17,6 19,5 85,0 9,6 274 - 1,6 367 1.014,6
13:14 20,2 17,4 19,4 84,3 8,1 267 11,6 1,6 369 1.014,5
13:13 20,2 17,6 19,5 84,9 8,1 195 11,6 1,6 358 1.014,5
13:12 20,2 17,5 19,5 84,9 8,7 260 12,1 1,6 303 1.014,5
13:11 20,2 17,4 19,4 84,0 9,6 226 - 1,6 506 1.014,4
13:10 20,2 17,4 19,4 84,0 10,5 251 - 1,6 626 1.014,4
13:09 20,2 17,5 19,4 84,6 11,4 261 - 1,6 623 1.014,4
13:08 20,2 17,6 19,5 85,0 10,4 254 - 1,6 608 1.014,4
13:07 20,2 17,6 19,5 85,0 9,3 308 - 1,6 657 1.014,4
13:06 20,2 17,5 19,5 84,8 8,9 242 - 1,6 657 1.014,4
13:05 20,1 17,4 19,4 84,3 10,7 233 - 1,6 657 1.014,3
13:04 20,2 17,6 19,5 85,0 11,2 223 - 1,6 657 1.014,4
13:03 20,1 17,6 19,5 85,0 11,0 240 - 1,6 624 1.014,4
13:02 20,1 17,5 19,5 85,0 11,2 267 - 1,6 330 1.014,4
13:01 20,1 17,5 19,5 85,0 10,9 253 - 1,6 313 1.014,5
13:00 20,1 17,5 19,5 85,0 10,1 268 - 1,6 279 1.014,4
 
12:59 20,1 17,5 19,5 85,0 9,3 222 - 1,6 270 1.014,4
12:58 20,1 17,5 19,5 85,0 9,5 211 - 1,6 269 1.014,5
12:57 20,1 17,4 19,3 84,4 9,3 249 - 1,6 258 1.014,4
12:56 20,1 17,3 19,3 84,0 9,5 205 - 1,6 195 1.014,4
12:55 20,1 17,3 19,3 84,0 9,8 256 13,9 1,6 194 1.014,4
12:54 20,1 17,3 19,3 84,3 11,3 271 - 1,6 181 1.014,4
12:53 20,1 17,4 19,3 84,7 10,9 260 - 1,6 176 1.014,4
12:52 20,0 17,2 19,2 84,0 11,0 222 - 1,6 179 1.014,4
12:51 20,0 17,3 19,3 84,7 11,4 242 - 1,6 209 1.014,3
12:50 20,0 17,4 19,3 85,0 10,9 233 13,9 1,6 231 1.014,3
12:49 20,0 17,4 19,3 85,0 10,1 267 - 1,6 233 1.014,4
12:48 20,0 17,4 19,3 85,0 9,8 237 - 1,6 224 1.014,4
12:47 20,0 17,4 19,4 85,0 9,8 262 - 1,6 215 1.014,4
12:46 20,1 17,5 19,4 85,0 10,5 280 - 1,6 235 1.014,4
12:45 20,1 17,3 19,3 84,3 10,5 274 - 1,6 239 1.014,3
12:44 20,1 17,3 19,2 84,0 10,9 238 - 1,6 253 1.014,3
12:43 20,1 17,3 19,2 84,0 11,4 271 - 1,6 335 1.014,2
12:42 20,0 17,3 19,2 84,0 11,8 245 - 1,6 436 1.014,2
12:41 20,0 17,2 19,2 84,0 12,3 252 - 1,6 435 1.014,3
12:40 20,0 17,2 19,1 84,0 12,7 244 - 1,6 440 1.014,2
12:39 19,9 17,3 19,2 84,7 12,4 263 - 1,6 336 1.014,1
12:38 19,9 17,4 19,3 85,0 11,6 209 15,2 1,6 214 1.014,1
12:37 19,9 17,4 19,3 85,0 11,2 281 14,8 1,6 214 1.014,2
12:36 19,9 17,4 19,3 85,0 10,6 266 - 1,6 214 1.014,2
12:35 19,9 17,4 19,3 85,0 10,6 205 14,8 1,6 208 1.014,2
12:34 20,0 17,4 19,3 85,0 11,0 243 - 1,6 210 1.014,2
12:33 20,0 17,4 19,3 85,0 11,8 257 - 1,6 209 1.014,2
12:32 20,0 17,4 19,3 85,0 11,9 259 - 1,6 220 1.014,2
12:31 20,0 17,5 19,4 85,2 11,2 242 - 1,6 251 1.014,3
12:30 20,1 17,6 19,5 85,7 10,0 278 13,4 1,6 214 1.014,3
12:29 20,1 17,5 19,4 85,0 9,1 236 - 1,6 169 1.014,4
12:28 20,1 17,5 19,4 85,0 9,3 234 - 1,6 123 1.014,4
12:27 20,1 17,5 19,4 85,0 8,8 236 - 1,6 80 1.014,4
12:26 20,1 17,5 19,5 85,0 8,3 273 - 1,6 117 1.014,4
12:25 20,1 17,5 19,5 85,0 7,9 235 - 1,6 193 1.014,4
12:24 20,1 17,5 19,5 85,0 8,3 236 - 1,6 193 1.014,4
12:23 20,1 17,5 19,5 85,0 8,7 249 - 1,6 200 1.014,4
12:22 20,1 17,5 19,4 85,0 9,1 260 - 1,6 260 1.014,3
12:21 20,1 17,5 19,4 85,0 8,9 233 - 1,6 779 1.014,3
12:20 20,1 17,5 19,4 85,0 9,0 219 - 1,6 779 1.014,3
12:19 20,1 17,5 19,4 85,0 8,6 244 - 1,6 756 1.014,4
12:18 20,1 17,5 19,4 85,0 8,5 274 - 1,6 653 1.014,4
12:17 20,1 17,5 19,4 85,0 8,7 226 - 1,6 617 1.014,3
12:16 20,1 17,5 19,4 85,0 9,2 263 - 1,6 608 1.014,3
12:15 20,1 17,5 19,4 85,0 9,6 244 - 1,6 531 1.014,3
12:14 20,1 17,5 19,4 85,1 9,5 266 - 1,6 483 1.014,4
12:13 20,0 17,6 19,5 86,0 9,2 261 - 1,6 507 1.014,5
12:12 20,0 17,6 19,5 86,0 9,1 228 - 1,6 334 1.014,4
12:11 20,0 17,6 19,5 86,0 9,6 233 - 1,6 262 1.014,3
12:10 20,0 17,6 19,5 86,0 9,3 209 - 1,6 228 1.014,4
12:09 20,0 17,6 19,5 86,0 8,5 187 - 1,6 204 1.014,4
12:08 20,0 17,6 19,5 86,0 8,0 249 11,2 1,6 198 1.014,4
12:07 20,0 17,6 19,5 86,0 8,3 205 - 1,6 188 1.014,5
12:06 20,0 17,6 19,5 86,0 8,6 232 - 1,6 176 1.014,4
12:05 20,0 17,6 19,5 86,0 9,3 232 - 1,6 171 1.014,4
12:04 20,0 17,5 19,4 86,0 9,6 207 - 1,6 198 1.014,4
12:03 19,9 17,5 19,4 86,0 9,4 233 - 1,6 212 1.014,4
12:02 19,9 17,5 19,4 86,0 9,1 238 - 1,6 215 1.014,4
12:01 19,9 17,5 19,4 86,0 8,8 223 - 1,6 194 1.014,4
12:00 19,9 17,5 19,4 86,0 8,6 249 11,6 1,6 152 1.014,5
 
11:59 19,9 17,6 19,5 86,5 8,5 250 - 1,6 131 1.014,5
11:58 19,9 17,7 19,6 87,0 8,1 242 - 1,6 154 1.014,5
11:57 19,9 17,7 19,6 87,0 8,2 219 - 1,6 257 1.014,5
11:56 19,9 17,5 19,4 86,3 8,1 217 - 1,6 236 1.014,5
11:55 19,9 17,7 19,5 87,0 8,3 261 - 1,6 217 1.014,5
11:54 19,9 17,7 19,5 87,0 8,5 242 - 1,6 220 1.014,6
11:53 19,9 17,6 19,5 87,0 8,3 246 - 1,6 226 1.014,6
11:52 19,8 17,6 19,5 87,0 8,4 255 - 1,6 263 1.014,6
11:51 19,8 17,6 19,4 87,0 8,3 266 - 1,6 282 1.014,5
11:50 19,8 17,6 19,4 87,0 8,6 215 - 1,6 262 1.014,5
11:49 19,8 17,6 19,5 87,3 8,8 240 - 1,6 271 1.014,5
11:48 19,7 17,7 19,5 88,0 8,7 259 - 1,6 539 1.014,5
11:47 19,7 17,7 19,5 88,0 8,3 237 - 1,6 605 1.014,4
11:46 19,7 17,7 19,5 88,0 7,1 251 - 1,6 605 1.014,4
11:45 19,7 17,7 19,5 88,1 7,0 178 - 1,6 616 1.014,4
11:44 19,7 17,8 19,6 89,0 7,2 242 - 1,6 415 1.014,5
11:43 19,7 17,8 19,6 89,0 7,6 235 - 1,6 197 1.014,5
11:42 19,7 17,8 19,6 89,0 7,4 222 - 1,6 191 1.014,5
11:41 19,7 17,8 19,6 89,0 7,4 232 - 1,6 194 1.014,4
11:40 19,7 17,8 19,6 89,0 7,9 263 - 1,6 189 1.014,4
11:39 19,7 17,8 19,6 89,0 8,1 238 - 1,6 198 1.014,4
11:38 19,7 17,8 19,6 89,0 8,0 258 - 1,6 210 1.014,4
11:37 19,6 17,8 19,5 89,0 7,7 238 - 1,6 184 1.014,4
11:36 19,6 17,7 19,5 89,0 7,9 235 - 1,6 172 1.014,4
11:35 19,6 17,7 19,5 89,0 8,3 259 - 1,6 580 1.014,4
11:34 19,6 17,7 19,5 89,0 8,6 236 11,6 1,6 601 1.014,4
11:33 19,6 17,9 19,0 90,0 8,6 227 - 1,6 601 1.014,4
11:32 19,6 17,9 19,0 90,0 8,4 232 - 1,6 601 1.014,4
11:31 19,6 17,9 19,0 90,0 8,4 249 - 1,6 312 1.014,3
11:30 19,6 17,9 19,0 90,0 8,5 222 - 1,6 188 1.014,4
11:29 19,6 17,9 19,0 90,0 8,3 240 - 1,6 188 1.014,4
11:28 19,6 17,9 19,0 90,0 8,3 244 - 1,6 239 1.014,3
11:27 19,5 18,0 19,0 91,0 8,4 223 - 1,6 359 1.014,3
11:26 19,6 18,0 19,0 91,0 8,3 223 - 1,6 525 1.014,3
11:25 19,5 18,0 19,0 91,0 8,2 251 - 1,6 635 1.014,2
11:24 19,5 18,0 19,0 91,0 8,2 243 - 1,6 623 1.014,2
11:23 19,4 17,9 18,9 91,0 8,5 263 - 1,6 233 1.014,3
11:22 19,4 17,9 18,9 91,0 8,9 263 - 1,6 213 1.014,3
11:21 19,4 17,9 18,9 91,0 8,9 267 - 1,6 199 1.014,3
11:20 19,4 17,9 18,9 91,0 8,1 252 - 1,6 434 1.014,3
11:19 19,4 17,9 18,9 91,0 8,2 209 - 1,6 603 1.014,3
11:18 19,4 17,9 18,9 91,6 8,6 201 - 1,6 258 1.014,3
11:17 19,3 18,0 18,9 92,0 8,2 211 - 1,6 217 1.014,4
11:16 19,3 18,0 18,9 92,0 7,9 229 - 1,6 215 1.014,4
11:15 19,3 17,9 18,8 92,0 7,6 219 - 1,6 214 1.014,4
11:14 19,3 17,9 18,8 92,0 7,6 232 - 1,6 184 1.014,4
11:13 19,3 17,9 18,8 92,0 7,7 210 11,2 1,6 175 1.014,4
11:12 19,2 17,9 18,8 92,0 7,9 205 11,2 1,6 173 1.014,4
11:11 19,2 17,9 18,8 92,0 7,5 209 - 1,6 160 1.014,4
11:10 19,2 17,8 18,7 92,0 7,1 224 - 1,6 170 1.014,4
11:09 19,2 17,9 18,7 92,4 6,9 203 - 1,6 116 1.014,4
11:08 19,2 18,0 18,8 93,0 7,0 225 - 1,6 106 1.014,4
11:07 19,2 17,9 18,7 92,6 6,8 200 - 1,6 131 1.014,4
11:06 19,2 17,9 18,8 92,6 6,8 240 - 1,6 113 1.014,4
11:05 19,2 18,0 18,8 93,0 7,2 221 - 1,6 95 1.014,3
11:04 19,2 18,0 18,8 93,0 7,4 232 - 1,6 89 1.014,3
11:03 19,2 18,0 18,8 93,0 6,8 193 10,7 1,6 86 1.014,3
11:02 19,2 18,0 18,8 93,0 5,6 191 - 1,6 91 1.014,4
11:01 19,2 18,0 18,8 93,0 5,8 253 - 1,6 104 1.014,4
11:00 19,2 18,0 18,8 93,0 6,6 210 10,3 1,6 131 1.014,5
 
10:59 19,1 18,0 18,7 93,0 6,9 231 - 1,6 158 1.014,4
10:58 19,1 17,9 18,7 93,0 6,3 226 9,4 1,6 171 1.014,4
10:57 19,1 17,9 18,7 93,0 6,3 182 9,4 1,6 172 1.014,4
10:56 19,1 17,9 18,7 93,0 6,0 228 9,4 1,6 165 1.014,4
10:55 19,1 17,9 18,7 93,0 5,7 193 - 1,6 153 1.014,4
10:54 19,0 17,9 18,7 93,0 5,5 229 9,4 1,6 152 1.014,4
10:53 19,0 17,9 18,6 93,0 6,1 198 - 1,6 158 1.014,4
10:52 19,0 17,9 18,7 93,0 6,8 226 - 1,6 152 1.014,4
10:51 19,1 17,9 18,7 93,0 7,3 222 - 1,6 136 1.014,3
10:50 19,0 17,9 18,6 93,0 7,4 219 - 1,6 123 1.014,3
10:49 19,1 17,9 18,7 93,0 7,4 211 - 1,6 121 1.014,4
10:48 19,1 17,9 18,7 93,0 7,0 225 10,3 1,6 113 1.014,4
10:47 19,1 18,1 18,8 93,8 6,5 239 - 1,6 117 1.014,4
10:46 19,2 18,2 18,8 94,0 6,1 205 9,8 1,6 151 1.014,5
10:45 19,1 18,1 18,8 94,0 5,8 217 - 1,6 195 1.014,5
10:44 19,2 18,1 18,8 94,0 5,1 187 - 1,6 221 1.014,4
10:43 19,1 18,1 18,8 94,0 5,0 256 - 1,6 223 1.014,4
10:42 19,1 18,1 18,8 94,0 5,3 230 - 1,6 212 1.014,3
10:41 19,1 18,1 18,7 94,0 5,5 226 - 1,6 204 1.014,2
10:40 19,0 18,0 18,7 94,0 5,6 201 - 1,6 234 1.014,2
10:39 19,0 18,0 18,7 94,0 4,9 224 - 1,6 256 1.014,2
10:38 19,0 18,0 18,6 94,0 4,5 238 - 1,6 221 1.014,1
10:37 18,9 17,9 18,6 94,0 4,5 223 - 1,6 191 1.014,1
10:36 18,9 17,9 18,6 94,0 4,3 188 - 1,6 175 1.014,1
10:35 18,9 17,9 18,6 94,0 4,1 232 - 1,6 171 1.014,1
10:34 18,9 17,9 18,6 94,0 4,4 238 - 1,6 176 1.014,1
10:33 18,9 17,9 18,5 94,0 4,6 205 - 1,6 181 1.014,1
10:32 18,9 17,9 18,5 94,0 4,1 232 - 1,6 189 1.014,0
10:31 18,9 17,9 18,5 94,0 4,1 165 - 1,6 182 1.014,1
10:30 18,8 17,8 18,5 94,0 4,3 211 - 1,6 130 1.014,1
10:29 18,8 17,8 18,5 94,0 4,3 182 - 1,6 115 1.014,1
10:28 18,8 17,8 18,5 94,0 4,6 222 - 1,6 132 1.014,1
10:27 18,8 17,8 18,5 94,0 5,0 205 - 1,6 140 1.014,2
10:26 18,8 17,8 18,5 94,0 4,8 213 - 1,6 149 1.014,2
10:25 18,8 17,8 18,4 94,0 4,9 209 - 1,6 155 1.014,2
10:24 18,7 17,7 18,4 94,0 5,2 210 - 1,6 145 1.014,2
10:23 18,7 17,7 18,4 94,0 5,2 186 - 1,6 116 1.014,2
10:22 18,7 17,7 18,4 94,0 5,6 227 - 1,6 90 1.014,1
10:21 18,7 17,7 18,4 94,0 6,3 215 9,4 1,6 89 1.014,1
10:20 18,7 17,7 18,4 94,0 6,3 219 - 1,6 94 1.014,1
10:19 18,7 17,7 18,4 94,0 5,9 223 - 1,6 94 1.014,1
10:18 18,7 17,7 18,4 94,0 5,8 237 - 1,6 85 1.014,2
10:17 18,7 17,7 18,3 94,0 5,8 217 - 1,6 75 1.014,2
10:16 18,7 17,7 18,3 94,0 6,1 238 - 1,6 73 1.014,2
10:15 18,7 17,7 18,4 94,0 6,4 213 - 1,6 81 1.014,2
10:14 18,7 17,7 18,4 94,0 6,4 217 - 1,6 96 1.014,2
10:13 18,7 17,7 18,4 94,0 6,1 252 - 1,6 115 1.014,2
10:12 18,7 17,7 18,4 94,0 6,1 224 - 1,6 150 1.014,2
10:11 18,7 17,7 18,3 94,0 6,3 226 - 1,6 190 1.014,1
10:10 18,7 17,7 18,3 94,0 6,6 224 - 1,6 206 1.014,1
10:09 18,7 17,7 18,3 94,0 6,4 232 - 1,6 194 1.014,1
10:08 18,7 17,6 18,3 94,0 6,0 228 - 1,6 174 1.014,1
10:07 18,6 17,6 18,3 94,0 5,9 216 - 1,6 153 1.014,1
10:06 18,6 17,6 18,2 94,0 5,8 213 - 1,6 169 1.014,1
10:05 18,6 17,6 18,2 94,0 6,3 247 - 1,6 202 1.014,2
10:04 18,5 17,5 18,2 94,0 6,4 226 - 1,6 187 1.014,1
10:03 18,5 17,5 18,2 94,0 6,4 207 - 1,6 165 1.014,1
10:02 18,5 17,5 18,2 94,0 6,6 192 - 1,6 157 1.014,1
10:01 18,5 17,5 18,2 94,0 6,8 218 - 1,6 147 1.014,1
10:00 18,5 17,5 18,2 94,0 6,7 233 - 1,6 140 1.014,1
 
09:59 18,5 17,5 18,1 94,0 6,7 234 - 1,6 119 1.014,1
09:58 18,5 17,5 18,2 94,0 6,8 236 - 1,6 106 1.014,2
09:57 18,5 17,5 18,2 94,0 7,0 253 - 1,6 96 1.014,2
09:56 18,5 17,5 18,2 94,0 7,2 218 - 1,6 80 1.014,1
09:55 18,5 17,5 18,2 94,0 7,2 240 - 1,6 70 1.014,1
09:54 18,5 17,5 18,2 94,0 6,5 209 - 1,6 87 1.014,1
09:53 18,5 17,5 18,2 94,0 6,0 237 - 1,6 138 1.014,2
09:52 18,5 17,5 18,1 94,0 6,0 230 - 1,6 176 1.014,1
09:51 18,5 17,4 18,1 94,0 6,1 218 - 1,6 162 1.014,0
09:50 18,4 17,4 18,1 94,0 6,2 214 - 1,6 140 1.014,0
09:49 18,4 17,4 18,1 94,0 6,5 229 - 1,6 126 1.014,1
09:48 18,4 17,4 18,1 94,0 7,2 224 - 1,6 118 1.014,1
09:47 18,4 17,4 18,1 94,0 7,3 234 10,3 1,6 106 1.014,1
09:46 18,4 17,4 18,0 94,0 6,5 267 9,8 1,6 84 1.014,1
09:45 18,4 17,3 18,0 94,0 6,2 191 9,8 1,6 69 1.014,0
09:44 18,3 17,3 18,0 94,0 7,1 215 - 1,6 59 1.014,0
09:43 18,3 17,3 18,0 94,0 7,3 220 - 1,6 51 1.014,0
09:42 18,3 17,3 18,0 94,0 7,1 218 - 1,6 48 1.014,0
09:41 18,3 17,3 18,0 94,0 7,1 255 - 1,6 49 1.014,0
09:40 18,3 17,3 18,0 94,0 7,5 227 - 1,6 56 1.013,9
09:39 18,3 17,3 18,0 94,0 7,8 219 - 1,6 67 1.013,9
09:38 18,3 17,3 18,0 94,0 8,0 255 - 1,6 79 1.013,9
09:37 18,3 17,3 18,0 94,0 8,3 236 - 1,6 79 1.013,9
09:36 18,3 17,3 18,0 94,0 8,5 259 - 1,6 66 1.013,8
09:35 18,3 17,3 18,0 94,0 8,6 235 - 1,6 57 1.013,8
09:34 18,3 17,3 18,0 94,0 8,9 223 - 1,6 56 1.013,9
09:33 18,3 17,3 18,0 94,0 8,9 243 - 1,6 58 1.013,9
09:32 18,3 17,3 18,0 94,0 8,9 259 - 1,6 69 1.013,8
09:31 18,4 17,4 18,0 94,0 8,0 232 - 1,6 79 1.013,9
09:30 18,4 17,4 18,0 94,0 8,0 186 11,2 1,6 86 1.014,0
09:29 18,3 17,3 18,0 94,0 8,0 252 12,1 1,6 86 1.013,9
09:28 18,3 17,3 18,0 94,0 9,5 240 - 1,6 90 1.013,7
09:27 18,3 17,3 18,0 94,0 9,9 239 - 1,6 95 1.013,8
09:26 18,3 17,3 18,0 94,0 9,6 238 - 1,6 49 1.014,1
09:25 18,3 17,3 18,0 94,0 8,8 226 - 1,6 43 1.014,1
09:24 18,3 17,3 17,9 94,0 7,7 228 11,2 1,6 33 1.014,2
09:23 18,2 17,2 17,9 94,0 6,5 243 - 1,6 29 1.014,2
09:22 18,2 17,2 17,9 94,0 5,7 218 - 1,6 26 1.014,2
09:21 18,2 17,2 17,9 94,0 5,5 232 - 1,6 26 1.014,2
09:20 18,2 17,2 17,9 94,0 5,1 226 - 1,6 36 1.014,2
09:19 18,2 17,2 17,9 94,0 4,9 188 - 1,4 30 1.014,2
09:18 18,2 17,2 17,8 94,0 4,7 208 - 1,4 26 1.014,2
09:17 18,2 17,2 17,8 94,0 4,8 218 - 1,4 24 1.014,2
09:16 18,2 17,2 17,8 94,0 5,2 204 - 1,4 20 1.014,2
09:15 18,2 17,2 17,8 94,0 5,5 222 - 1,4 23 1.014,2
09:14 18,2 17,2 17,8 94,0 5,4 225 - 1,4 33 1.014,2
09:13 18,1 17,1 17,8 94,0 5,1 233 - 1,2 33 1.014,3
09:12 18,1 17,1 17,8 94,0 4,6 230 - 1,2 26 1.014,3
09:11 18,1 17,1 17,8 94,0 4,2 222 - 1,2 23 1.014,3
09:10 18,1 17,1 17,8 94,0 4,1 213 - 1,2 25 1.014,2
09:09 18,1 17,1 17,8 94,0 4,2 228 - 1,0 26 1.014,3
09:08 18,1 17,1 17,8 94,0 4,2 219 - 1,0 26 1.014,3
09:07 18,1 16,9 17,7 93,2 4,6 182 - 1,0 28 1.014,2
09:06 18,1 16,9 17,7 93,2 4,7 192 - 1,0 36 1.014,2
09:05 18,1 17,1 17,7 94,0 4,2 185 - 1,0 40 1.014,2
09:04 18,1 17,0 17,7 93,6 4,0 227 - 1,0 34 1.014,2
09:03 18,1 16,9 17,7 93,0 4,2 177 - 1,0 26 1.014,2
09:02 18,1 16,9 17,7 93,0 4,3 176 - 0,8 21 1.014,2
09:01 18,1 16,9 17,7 93,0 4,2 199 - 0,8 27 1.014,2
09:00 18,1 16,9 17,7 93,0 4,4 210 - 0,8 30 1.014,2
 
08:59 18,0 16,9 17,7 93,0 4,5 186 - 0,8 31 1.014,1
08:58 18,1 16,9 17,7 93,0 4,1 190 - 0,8 32 1.014,1
08:57 18,0 16,9 17,7 93,0 3,6 199 - 0,8 30 1.014,1
08:56 18,0 16,9 17,6 93,0 3,0 172 - 0,8 26 1.014,1
08:55 18,0 16,9 17,6 93,0 3,1 229 - 0,8 28 1.014,1
08:54 18,0 16,9 17,6 93,0 3,4 207 - 0,8 31 1.014,1
08:53 18,0 16,8 17,6 93,0 3,4 197 - 0,8 36 1.014,0
08:52 18,0 16,8 17,6 93,0 3,8 197 - 0,8 37 1.014,0
08:51 18,0 16,8 17,6 93,0 3,9 197 - 0,8 48 1.014,0
08:50 17,9 16,8 17,6 93,0 3,7 204 - 0,8 58 1.014,0
08:49 17,9 16,8 17,6 93,0 3,5 224 - 0,8 60 1.014,1
08:48 17,9 16,8 17,6 93,0 3,6 247 - 0,6 64 1.014,1
08:47 17,9 16,8 17,5 93,0 3,0 218 - 0,6 68 1.014,0
08:46 17,9 16,8 17,6 93,0 2,7 183 - 0,6 63 1.014,0
08:45 17,9 16,8 17,5 93,0 2,7 226 - 0,6 64 1.013,9
08:44 17,9 16,7 17,5 93,0 3,0 168 - 0,6 58 1.014,0
08:43 17,9 16,7 17,5 93,0 3,5 149 - 0,6 51 1.014,0
08:42 17,9 16,7 17,5 93,0 3,2 199 - 0,6 45 1.014,1
08:41 17,9 16,7 17,5 93,0 3,2 149 - 0,6 44 1.014,0
08:40 17,9 16,7 17,5 93,0 3,0 210 - 0,6 40 1.014,0
08:39 17,9 16,7 17,5 93,0 3,3 214 - 0,6 35 1.014,1
08:38 17,9 16,7 17,5 93,0 3,1 186 - 0,6 36 1.014,1
08:37 17,9 16,7 17,5 93,0 3,6 151 - 0,6 35 1.014,1
08:36 17,9 16,7 17,5 93,0 4,0 201 - 0,6 31 1.014,1
08:35 17,9 16,7 17,5 93,0 4,1 205 - 0,6 32 1.014,0
08:34 17,9 16,7 17,5 93,0 3,6 140 - 0,6 36 1.014,0
08:33 17,9 16,7 17,5 93,0 3,3 227 - 0,4 34 1.014,0
08:32 17,9 16,7 17,5 93,0 3,6 153 - 0,4 29 1.014,0
08:31 17,9 16,7 17,5 93,0 4,1 170 - 0,4 24 1.014,0
08:30 17,9 16,7 17,5 93,0 4,6 211 - 0,4 22 1.014,0
08:29 17,9 16,7 17,5 93,0 4,8 186 - 0,4 25 1.014,0
08:28 17,9 16,7 17,5 93,0 4,5 204 - 0,4 21 1.014,0
08:27 17,9 16,7 17,5 93,0 4,7 208 - 0,4 18 1.014,0
08:26 17,9 16,7 17,5 93,0 4,9 193 - 0,4 17 1.014,0
08:25 17,9 16,7 17,5 93,0 4,8 184 - 0,4 18 1.014,0
08:24 17,8 16,7 17,4 93,0 4,4 205 - 0,4 20 1.014,0
08:23 17,8 16,7 17,5 93,0 4,3 209 - 0,4 23 1.014,0
08:22 17,8 16,7 17,5 93,0 4,0 180 - 0,4 23 1.014,0
08:21 17,8 16,7 17,4 93,0 3,8 207 - 0,4 24 1.013,9
08:20 17,8 16,7 17,4 93,0 4,2 209 - 0,4 25 1.014,0
08:19 17,8 16,6 17,4 92,8 4,6 186 - 0,4 25 1.014,0
08:18 17,8 16,5 17,4 92,0 4,7 226 - 0,4 25 1.013,9
08:17 17,8 16,5 17,4 92,0 4,7 204 - 0,4 23 1.013,9
08:16 17,8 16,5 17,4 92,0 4,2 221 - 0,4 21 1.013,9
08:15 17,8 16,4 17,3 92,0 3,7 201 - 0,4 22 1.013,9
08:14 17,8 16,5 17,3 92,0 3,5 221 - 0,4 27 1.013,9
08:13 17,8 16,5 17,3 92,0 3,6 201 - 0,4 30 1.013,8
08:12 17,8 16,4 17,3 92,0 3,5 211 - 0,4 24 1.013,8
08:11 17,8 16,4 17,3 92,0 3,6 199 - 0,4 21 1.013,8
08:10 17,8 16,4 17,3 92,0 3,9 222 - 0,4 21 1.013,8
08:09 17,8 16,4 17,3 92,0 3,3 203 - 0,4 19 1.013,8
08:08 17,8 16,4 17,3 92,0 2,9 144 - 0,4 20 1.013,8
08:07 17,8 16,4 17,3 92,0 2,7 184 - 0,4 22 1.013,8
08:06 17,8 16,4 17,3 92,0 3,3 217 - 0,4 24 1.013,9
08:05 17,8 16,4 17,3 92,0 3,3 213 - 0,4 23 1.013,9
08:04 17,8 16,4 17,3 92,0 3,3 150 - 0,4 18 1.013,9
08:03 17,8 16,4 17,3 92,0 3,2 225 - 0,4 12 1.014,0
08:02 17,8 16,4 17,3 92,0 3,3 192 - 0,2 12 1.014,0
08:01 17,8 16,4 17,3 92,0 3,2 192 - 0,2 11 1.014,0
08:00 17,8 16,4 17,3 92,0 3,2 209 - 0,2 15 1.014,0
 
07:59 17,8 16,4 17,3 92,0 3,1 206 - 0,2 16 1.014,0
07:58 17,8 16,4 17,3 92,0 1,9 186 - 0,2 22 1.014,0
07:57 17,8 16,4 17,3 92,0 2,2 75 - 0,2 27 1.014,1
07:56 17,8 16,4 17,3 92,0 2,5 185 - 0,2 27 1.014,1
07:55 17,8 16,4 17,3 92,0 3,2 186 - 0,2 23 1.014,1
07:54 17,8 16,4 17,3 92,0 3,3 235 - 0,2 21 1.014,0
07:53 17,8 16,4 17,3 92,0 3,6 209 - 0,2 23 1.014,0
07:52 17,8 16,4 17,3 92,0 3,6 178 - 0,2 24 1.014,0
07:51 17,8 16,4 17,3 92,0 3,0 183 - 0,2 17 1.014,1
07:50 17,8 16,4 17,3 92,0 2,6 113 - 0,2 14 1.014,1
07:49 17,8 16,4 17,3 91,7 2,5 197 - 0,2 13 1.014,1
07:48 17,8 16,3 17,3 91,0 3,0 209 - 0,2 12 1.014,1
07:47 17,8 16,3 17,3 91,0 3,1 206 - 0,2 12 1.014,2
07:46 17,8 16,3 17,3 91,0 3,4 203 - 0,2 11 1.014,2
07:45 17,8 16,3 17,3 91,0 3,5 209 - 0,2 9 1.014,2
07:44 17,8 16,3 17,3 91,0 3,3 217 - 0,2 8 1.014,3
07:43 17,8 16,3 17,3 91,0 3,5 220 - 0,2 6 1.014,3
07:42 17,8 16,3 17,3 91,0 3,5 228 - 0,2 5 1.014,3
07:41 17,8 16,3 17,3 91,0 3,6 178 - 0,2 5 1.014,3
07:40 17,8 16,3 17,3 91,0 3,7 190 - 0,2 0 1.014,3
07:39 17,8 16,3 17,3 91,0 4,2 209 - 0,2 0 1.014,3
07:38 17,8 16,3 17,3 91,0 4,5 190 - 0,2 0 1.014,2
07:37 17,8 16,3 17,3 91,0 4,1 188 - 0,2 0 1.014,2
07:36 17,8 16,3 17,3 91,0 3,3 224 - 0,2 0 1.014,3
07:35 17,8 16,3 17,3 91,0 3,2 210 - 0,2 0 1.014,2
07:34 17,8 16,3 17,3 91,0 3,2 216 - 0,2 0 1.014,2
07:33 17,8 16,3 17,3 91,0 3,4 182 - 0,2 0 1.014,2
07:32 17,8 16,3 17,3 91,0 3,2 202 - 0,2 0 1.014,3
07:31 17,8 16,3 17,3 91,0 2,8 192 - 0,2 0 1.014,3
07:30 17,8 16,3 17,3 91,0 2,9 236 - 0,2 0 1.014,2
07:29 17,9 16,3 17,4 91,0 3,3 214 - 0,2 0 1.014,3
07:28 17,9 16,3 17,4 91,0 3,4 190 - 0,2 0 1.014,3
07:27 17,9 16,4 17,4 91,0 3,7 163 - 0,2 0 1.014,3
07:26 17,9 16,4 17,4 91,0 3,7 194 - 0,0 0 1.014,3
07:25 17,9 16,4 17,4 91,0 3,2 179 - 0,0 0 1.014,3
07:24 17,9 16,4 17,4 91,0 2,8 209 - 0,0 4 1.014,2
07:23 17,9 16,3 17,9 90,4 3,0 208 - 0,0 4 1.014,3
07:22 17,9 16,2 17,8 90,0 3,3 192 - 0,0 2 1.014,3
07:21 17,9 16,2 17,8 90,0 3,6 191 - 0,0 5 1.014,3
07:20 17,9 16,2 17,8 90,0 3,9 187 - 0,0 2 1.014,3
07:19 17,9 16,2 17,9 90,0 4,2 204 - 0,0 0 1.014,3
07:18 17,9 16,2 17,9 90,0 4,1 199 - 0,0 0 1.014,3
07:17 17,9 16,2 17,9 90,0 4,0 197 - 0,0 0 1.014,4
07:16 17,9 16,3 17,9 90,0 4,3 202 - 0,0 0 1.014,4
07:15 17,9 16,3 17,9 90,0 4,5 207 - 0,0 0 1.014,4
07:14 17,9 16,3 17,9 90,0 4,4 165 - 0,0 0 1.014,3
07:13 17,9 16,3 17,9 90,0 3,9 192 - 0,0 0 1.014,3
07:12 17,9 16,3 17,9 90,0 3,9 221 - 0,0 0 1.014,3
07:11 17,9 16,2 17,9 90,0 3,8 199 - 0,0 0 1.014,3
07:10 17,9 16,2 17,8 90,0 4,2 183 - 0,0 0 1.014,3
07:09 17,9 16,2 17,8 90,0 4,5 209 - 0,0 0 1.014,3
07:08 17,9 16,2 17,8 90,0 4,5 215 - 0,0 0 1.014,3
07:07 17,9 16,2 17,8 90,0 3,9 198 - 0,0 0 1.014,3
07:06 17,9 16,2 17,8 90,0 3,3 176 - 0,0 0 1.014,3
07:05 17,9 16,2 17,8 90,0 3,4 253 - 0,0 0 1.014,2
07:04 17,8 16,2 17,8 90,0 3,9 213 - 0,0 0 1.014,2
07:03 17,8 16,2 17,8 90,0 3,8 178 - 0,0 0 1.014,2
07:02 17,8 16,2 17,8 90,0 3,3 242 - 0,0 0 1.014,1
07:01 17,8 16,1 17,7 89,6 3,5 208 - 0,0 0 1.014,1
07:00 17,8 16,0 17,6 89,0 3,8 210 - 0,0 0 1.014,1
 
06:59 17,8 16,0 17,6 89,0 3,9 173 - 0,0 0 1.014,1
06:58 17,8 15,9 17,6 89,0 4,3 195 - 0,0 0 1.014,0
06:57 17,8 15,9 17,6 89,0 4,6 209 - 0,0 0 1.014,0
06:56 17,8 15,9 17,6 89,0 4,5 215 - 0,0 0 1.014,0
06:55 17,8 15,9 17,6 89,0 4,2 191 - 0,0 0 1.013,9
06:54 17,8 15,9 17,6 89,0 4,4 182 - 0,0 0 1.013,9
06:53 17,8 15,9 17,6 89,0 3,7 172 - 0,0 0 1.013,9
06:52 17,8 15,9 17,5 89,0 3,6 199 - 0,0 0 1.013,9
06:51 17,8 15,9 17,6 89,0 3,6 177 - 0,0 0 1.013,9
06:50 17,8 15,9 17,6 89,0 3,5 159 - 0,0 0 1.014,0
06:49 17,7 15,9 17,5 89,0 3,9 180 - 0,0 0 1.014,0
06:48 17,7 15,9 17,5 89,0 4,6 186 - 0,0 0 1.014,0
06:47 17,7 15,9 17,5 89,0 4,4 175 - 0,0 0 1.013,9
06:46 17,8 15,9 17,5 89,0 3,6 179 - 0,0 0 1.014,0
06:45 17,7 15,9 17,5 89,0 3,0 170 - 0,0 0 1.014,0
06:44 17,7 15,9 17,5 89,0 3,5 151 - 0,0 0 1.014,0
06:43 17,7 15,9 17,5 89,0 4,0 196 - 0,0 0 1.014,1
06:42 17,7 15,9 17,5 89,0 3,7 209 - 0,0 0 1.014,1
06:41 17,7 15,9 17,5 89,0 4,1 186 - 0,0 0 1.014,1
06:40 17,7 15,9 17,5 89,0 4,2 171 - 0,0 0 1.014,1